Wetterdaten: Donnerstag, 25.02.2010
Datum Zeit Temp. Innen Temp. Aussen UV X Diff Temp. Feuchte Inne Feuchte Auss Sonnenschein Luftdruck Regen ab 0,1 Wind Sonnenschein Windben
25.02.2010 00:00 14,5 C 8,4 C 0,0 UV-I 0,0 C 57 % 87 % 0 % 994,8 hPa 0,1 l/m 13,7 km/h (3 Bft) 0 min 12,8 km/h (3 Bft)
25.02.2010 00:05 14,4 C 8,4 C 0,0 UV-I 0,0 C 57 % 87 % 0 % 994,8 hPa 0,0 l/m 13,7 km/h (3 Bft) 0 min 9,1 km/h (2 Bft)
25.02.2010 00:10 14,4 C 8,4 C 0,0 UV-I 0,0 C 57 % 87 % 0 % 994,8 hPa 0,0 l/m 15,7 km/h (3 Bft) 0 min 6,3 km/h (2 Bft)
25.02.2010 00:15 14,4 C 8,4 C 0,0 UV-I 0,0 C 57 % 87 % 0 % 994,5 hPa 0,0 l/m 15,3 km/h (3 Bft) 0 min 17,1 km/h (3 Bft)
25.02.2010 00:20 14,4 C 8,5 C 0,0 UV-I 0,0 C 57 % 87 % 0 % 994,5 hPa 0,0 l/m 15,7 km/h (3 Bft) 0 min 14,2 km/h (3 Bft)
25.02.2010 00:25 14,4 C 8,6 C 0,0 UV-I 0,0 C 57 % 86 % 0 % 994,5 hPa 0,0 l/m 17,7 km/h (3 Bft) 0 min 22,6 km/h (4 Bft)
25.02.2010 00:35 14,4 C 8,7 C 0,0 UV-I 0,0 C 57 % 86 % 0 % 994,1 hPa 0,0 l/m 18,5 km/h (3 Bft) 0 min 22,6 km/h (4 Bft)
25.02.2010 00:40 14,4 C 8,7 C 0,0 UV-I 0,0 C 57 % 85 % 0 % 994,1 hPa 0,0 l/m 15,7 km/h (3 Bft) 0 min 13,7 km/h (3 Bft)
25.02.2010 00:50 14,4 C 8,8 C 0,0 UV-I 0,0 C 57 % 85 % 0 % 994,1 hPa 0,0 l/m 16,1 km/h (3 Bft) 0 min 5,5 km/h (1 Bft)
25.02.2010 00:55 14,4 C 8,8 C 0,0 UV-I 0,0 C 57 % 84 % 0 % 994,1 hPa 0,0 l/m 14,5 km/h (3 Bft) 0 min 13,0 km/h (3 Bft)
25.02.2010 01:00 14,6 C 8,9 C 0,0 UV-I 0,0 C 57 % 84 % 0 % 994,1 hPa 0,0 l/m 17,3 km/h (3 Bft) 0 min 16,8 km/h (3 Bft)
25.02.2010 01:05 14,4 C 8,8 C 0,0 UV-I 0,0 C 57 % 84 % 0 % 994,1 hPa 0,0 l/m 18,5 km/h (3 Bft) 0 min 10,3 km/h (2 Bft)
25.02.2010 01:10 14,4 C 8,9 C 0,0 UV-I 0,0 C 57 % 84 % 0 % 994,1 hPa 0,0 l/m 18,1 km/h (3 Bft) 0 min 9,1 km/h (2 Bft)
25.02.2010 01:15 14,4 C 8,9 C 0,0 UV-I 0,0 C 57 % 84 % 0 % 993,8 hPa 0,0 l/m 18,5 km/h (3 Bft) 0 min 20,7 km/h (4 Bft)
25.02.2010 01:20 14,4 C 8,9 C 0,0 UV-I 0,0 C 57 % 84 % 0 % 993,8 hPa 0,0 l/m 18,5 km/h (3 Bft) 0 min 12,5 km/h (3 Bft)
25.02.2010 01:25 14,6 C 9,0 C 0,0 UV-I 0,0 C 56 % 84 % 0 % 993,8 hPa 0,0 l/m 18,9 km/h (3 Bft) 0 min 30,6 km/h (5 Bft)
25.02.2010 01:30 14,4 C 9,1 C 0,0 UV-I 0,0 C 57 % 84 % 0 % 993,8 hPa 0,0 l/m 19,7 km/h (3 Bft) 0 min 12,3 km/h (3 Bft)
25.02.2010 01:35 14,4 C 8,9 C 0,0 UV-I 0,0 C 57 % 85 % 0 % 993,7 hPa 0,1 l/m 19,3 km/h (3 Bft) 0 min 7,9 km/h (2 Bft)
25.02.2010 01:40 14,4 C 8,8 C 0,0 UV-I 0,0 C 57 % 86 % 0 % 993,7 hPa 0,0 l/m 16,9 km/h (3 Bft) 0 min 15,6 km/h (3 Bft)
25.02.2010 01:45 14,4 C 8,8 C 0,0 UV-I 0,0 C 57 % 86 % 0 % 993,7 hPa 0,0 l/m 16,1 km/h (3 Bft) 0 min 11,1 km/h (2 Bft)
25.02.2010 01:50 14,6 C 8,7 C 0,0 UV-I 0,0 C 57 % 87 % 0 % 993,7 hPa 0,0 l/m 17,3 km/h (3 Bft) 0 min 15,6 km/h (3 Bft)
25.02.2010 01:55 14,6 C 8,6 C 0,0 UV-I 0,0 C 57 % 87 % 0 % 993,6 hPa 0,0 l/m 17,7 km/h (3 Bft) 0 min 12,5 km/h (3 Bft)
25.02.2010 02:00 14,4 C 8,7 C 0,0 UV-I 0,0 C 57 % 87 % 0 % 993,6 hPa 0,0 l/m 17,3 km/h (3 Bft) 0 min 12,5 km/h (3 Bft)
25.02.2010 02:05 14,4 C 8,7 C 0,0 UV-I 0,0 C 57 % 87 % 0 % 993,6 hPa 0,0 l/m 16,5 km/h (3 Bft) 0 min 11,8 km/h (2 Bft)
25.02.2010 02:10 14,4 C 8,7 C 0,0 UV-I 0,0 C 57 % 87 % 0 % 993,6 hPa 0,0 l/m 17,3 km/h (3 Bft) 0 min 12,8 km/h (3 Bft)
25.02.2010 02:20 14,4 C 8,7 C 0,0 UV-I 0,0 C 57 % 87 % 0 % 993,2 hPa 0,0 l/m 16,5 km/h (3 Bft) 0 min 16,6 km/h (3 Bft)
25.02.2010 02:25 14,4 C 8,7 C 0,0 UV-I 0,0 C 57 % 87 % 0 % 993,2 hPa 0,0 l/m 17,7 km/h (3 Bft) 0 min 18,0 km/h (3 Bft)
25.02.2010 02:35 14,4 C 8,7 C 0,0 UV-I 0,0 C 57 % 87 % 0 % 992,9 hPa 0,1 l/m 20,1 km/h (4 Bft) 0 min 25,5 km/h (4 Bft)
25.02.2010 02:40 14,4 C 8,7 C 0,0 UV-I 0,0 C 57 % 87 % 0 % 992,9 hPa 0,0 l/m 20,1 km/h (4 Bft) 0 min 17,6 km/h (3 Bft)
25.02.2010 02:45 14,4 C 8,7 C 0,0 UV-I 0,0 C 57 % 87 % 0 % 992,9 hPa 0,0 l/m 18,9 km/h (3 Bft) 0 min 14,0 km/h (3 Bft)
25.02.2010 02:50 14,4 C 8,7 C 0,0 UV-I 0,0 C 57 % 87 % 0 % 992,9 hPa 0,0 l/m 16,5 km/h (3 Bft) 0 min 22,1 km/h (4 Bft)
25.02.2010 02:55 14,4 C 8,6 C 0,0 UV-I 0,0 C 57 % 87 % 0 % 992,8 hPa 0,0 l/m 17,3 km/h (3 Bft) 0 min 25,0 km/h (4 Bft)
25.02.2010 03:00 14,5 C 8,6 C 0,0 UV-I 0,0 C 57 % 86 % 0 % 992,8 hPa 0,0 l/m 17,7 km/h (3 Bft) 0 min 14,0 km/h (3 Bft)
25.02.2010 03:10 14,5 C 8,7 C 0,0 UV-I 0,0 C 57 % 86 % 0 % 992,8 hPa 0,0 l/m 17,3 km/h (3 Bft) 0 min 12,5 km/h (3 Bft)
25.02.2010 03:14 14,5 C 8,6 C 0,0 UV-I 0,0 C 57 % 86 % 0 % 992,6 hPa 0,0 l/m 16,9 km/h (3 Bft) 0 min 11,1 km/h (2 Bft)
25.02.2010 03:19 14,4 C 8,7 C 0,0 UV-I 0,0 C 57 % 87 % 0 % 992,6 hPa 0,0 l/m 16,9 km/h (3 Bft) 0 min 19,7 km/h (3 Bft)
25.02.2010 03:26 14,5 C 8,7 C 0,0 UV-I 0,0 C 57 % 87 % 0 % 992,6 hPa 0,0 l/m 17,7 km/h (3 Bft) 0 min 15,9 km/h (3 Bft)
25.02.2010 03:30 14,5 C 8,7 C 0,0 UV-I 0,0 C 57 % 87 % 0 % 992,6 hPa 0,0 l/m 16,1 km/h (3 Bft) 0 min 11,8 km/h (2 Bft)
25.02.2010 03:35 14,5 C 8,7 C 0,0 UV-I 0,0 C 57 % 87 % 0 % 992,6 hPa 0,0 l/m 16,1 km/h (3 Bft) 0 min 11,1 km/h (2 Bft)
25.02.2010 03:40 14,4 C 8,6 C 0,0 UV-I 0,0 C 57 % 87 % 0 % 992,6 hPa 0,1 l/m 16,5 km/h (3 Bft) 0 min 12,5 km/h (3 Bft)
25.02.2010 03:45 14,3 C 8,5 C 0,0 UV-I 0,0 C 57 % 88 % 0 % 992,6 hPa 0,1 l/m 14,5 km/h (3 Bft) 0 min 6,7 km/h (2 Bft)
25.02.2010 03:50 14,5 C 8,5 C 0,0 UV-I 0,0 C 57 % 88 % 0 % 992,6 hPa 0,0 l/m 13,7 km/h (3 Bft) 0 min 10,3 km/h (2 Bft)
25.02.2010 03:55 14,5 C 8,4 C 0,0 UV-I 0,0 C 57 % 88 % 0 % 992,4 hPa 0,0 l/m 14,5 km/h (3 Bft) 0 min 8,4 km/h (2 Bft)
25.02.2010 04:00 14,5 C 8,4 C 0,0 UV-I 0,0 C 57 % 88 % 0 % 992,4 hPa 0,0 l/m 15,7 km/h (3 Bft) 0 min 18,5 km/h (3 Bft)
25.02.2010 04:05 14,5 C 8,4 C 0,0 UV-I 0,0 C 57 % 88 % 0 % 992,4 hPa 0,0 l/m 16,1 km/h (3 Bft) 0 min 10,6 km/h (2 Bft)
25.02.2010 04:10 14,3 C 8,5 C 0,0 UV-I 0,0 C 57 % 88 % 0 % 992,4 hPa 0,0 l/m 15,7 km/h (3 Bft) 0 min 9,6 km/h (2 Bft)
25.02.2010 04:14 14,5 C 8,5 C 0,0 UV-I 0,0 C 57 % 88 % 0 % 992,1 hPa 0,0 l/m 14,9 km/h (3 Bft) 0 min 5,1 km/h (1 Bft)
25.02.2010 04:19 14,5 C 8,5 C 0,0 UV-I 0,0 C 57 % 87 % 0 % 992,1 hPa 0,0 l/m 15,7 km/h (3 Bft) 0 min 14,7 km/h (3 Bft)
25.02.2010 04:20 14,5 C 8,5 C 0,0 UV-I 0,0 C 57 % 87 % 0 % 992,1 hPa 0,0 l/m 15,7 km/h (3 Bft) 0 min 14,7 km/h (3 Bft)
25.02.2010 04:25 14,4 C 8,5 C 0,0 UV-I 0,0 C 57 % 87 % 0 % 992,1 hPa 0,0 l/m 16,5 km/h (3 Bft) 0 min 6,3 km/h (2 Bft)
25.02.2010 04:30 14,5 C 8,7 C 0,0 UV-I 0,0 C 57 % 87 % 0 % 992,1 hPa 0,0 l/m 16,1 km/h (3 Bft) 0 min 12,3 km/h (3 Bft)
25.02.2010 04:35 14,5 C 8,7 C 0,0 UV-I 0,0 C 57 % 87 % 0 % 991,8 hPa 0,0 l/m 12,4 km/h (3 Bft) 0 min 10,1 km/h (2 Bft)
25.02.2010 04:40 14,5 C 8,6 C 0,0 UV-I 0,0 C 57 % 87 % 0 % 991,8 hPa 0,1 l/m 13,3 km/h (3 Bft) 0 min 10,1 km/h (2 Bft)
25.02.2010 04:45 14,5 C 8,6 C 0,0 UV-I 0,0 C 57 % 87 % 0 % 991,8 hPa 0,0 l/m 16,1 km/h (3 Bft) 0 min 14,9 km/h (3 Bft)
25.02.2010 04:50 14,5 C 8,6 C 0,0 UV-I 0,0 C 57 % 87 % 0 % 991,8 hPa 0,0 l/m 16,1 km/h (3 Bft) 0 min 20,7 km/h (4 Bft)
25.02.2010 04:55 14,5 C 8,6 C 0,0 UV-I 0,0 C 57 % 87 % 0 % 991,7 hPa 0,0 l/m 14,9 km/h (3 Bft) 0 min 10,6 km/h (2 Bft)
25.02.2010 05:00 14,5 C 8,6 C 0,0 UV-I 0,0 C 57 % 87 % 0 % 991,7 hPa 0,0 l/m 15,7 km/h (3 Bft) 0 min 12,5 km/h (3 Bft)
25.02.2010 05:05 14,5 C 8,6 C 0,0 UV-I 0,0 C 57 % 87 % 0 % 991,7 hPa 0,0 l/m 16,9 km/h (3 Bft) 0 min 8,9 km/h (2 Bft)
25.02.2010 05:10 14,5 C 8,7 C 0,0 UV-I 0,0 C 57 % 87 % 0 % 991,7 hPa 0,0 l/m 17,3 km/h (3 Bft) 0 min 16,4 km/h (3 Bft)
25.02.2010 05:15 14,4 C 8,8 C 0,0 UV-I 0,0 C 57 % 87 % 0 % 991,6 hPa 0,0 l/m 17,7 km/h (3 Bft) 0 min 18,8 km/h (3 Bft)
25.02.2010 05:20 14,5 C 8,8 C 0,0 UV-I 0,0 C 57 % 86 % 0 % 991,6 hPa 0,1 l/m 16,1 km/h (3 Bft) 0 min 6,3 km/h (2 Bft)
25.02.2010 05:25 14,5 C 8,9 C 0,0 UV-I 0,0 C 57 % 86 % 0 % 991,6 hPa 0,0 l/m 13,7 km/h (3 Bft) 0 min 10,6 km/h (2 Bft)
25.02.2010 05:30 14,4 C 9,0 C 0,0 UV-I 0,0 C 57 % 86 % 0 % 991,6 hPa 0,0 l/m 10,8 km/h (2 Bft) 0 min 6,7 km/h (2 Bft)
25.02.2010 05:35 14,5 C 9,1 C 0,0 UV-I 0,0 C 57 % 86 % 0 % 991,9 hPa 0,0 l/m 11,6 km/h (2 Bft) 0 min 6,0 km/h (2 Bft)
25.02.2010 05:40 14,4 C 9,0 C 0,0 UV-I 0,0 C 57 % 86 % 0 % 991,9 hPa 0,0 l/m 12,0 km/h (2 Bft) 0 min 5,8 km/h (2 Bft)
25.02.2010 05:45 14,5 C 9,0 C 0,0 UV-I 0,0 C 57 % 86 % 0 % 991,9 hPa 0,0 l/m 11,6 km/h (2 Bft) 0 min 8,4 km/h (2 Bft)
25.02.2010 05:50 14,5 C 9,1 C 0,0 UV-I 0,0 C 57 % 86 % 0 % 991,9 hPa 0,0 l/m 10,8 km/h (2 Bft) 0 min 5,5 km/h (1 Bft)
25.02.2010 05:55 14,5 C 9,1 C 0,0 UV-I 0,0 C 57 % 86 % 0 % 992,2 hPa 0,0 l/m 9,6 km/h (2 Bft) 0 min 10,3 km/h (2 Bft)
25.02.2010 06:00 14,4 C 9,0 C 0,0 UV-I 0,0 C 57 % 87 % 0 % 992,2 hPa 0,2 l/m 8,8 km/h (2 Bft) 0 min 3,6 km/h (1 Bft)
25.02.2010 06:05 14,5 C 9,0 C 0,0 UV-I 0,0 C 57 % 87 % 0 % 992,2 hPa 0,0 l/m 9,2 km/h (2 Bft) 0 min 15,2 km/h (3 Bft)
25.02.2010 06:10 14,5 C 8,9 C 0,0 UV-I 0,0 C 57 % 88 % 0 % 992,2 hPa 0,2 l/m 10,4 km/h (2 Bft) 0 min 7,0 km/h (2 Bft)
25.02.2010 06:15 14,5 C 8,9 C 0,0 UV-I 0,0 C 57 % 88 % 0 % 991,9 hPa 0,1 l/m 9,2 km/h (2 Bft) 0 min 10,8 km/h (2 Bft)
25.02.2010 06:20 14,3 C 8,9 C 0,0 UV-I 0,0 C 57 % 88 % 0 % 991,9 hPa 0,0 l/m 8,0 km/h (2 Bft) 0 min 6,5 km/h (2 Bft)
25.02.2010 06:25 14,5 C 8,9 C 0,0 UV-I 0,0 C 58 % 89 % 0 % 991,9 hPa 0,0 l/m 9,2 km/h (2 Bft) 0 min 6,5 km/h (2 Bft)
25.02.2010 06:30 14,3 C 8,9 C 0,0 UV-I 0,0 C 58 % 89 % 0 % 991,9 hPa 0,1 l/m 11,2 km/h (2 Bft) 0 min 7,2 km/h (2 Bft)
25.02.2010 06:35 14,3 C 8,8 C 0,0 UV-I 0,0 C 58 % 89 % 0 % 991,8 hPa 0,0 l/m 12,4 km/h (3 Bft) 0 min 13,5 km/h (3 Bft)
25.02.2010 06:40 14,3 C 8,8 C 0,0 UV-I 0,0 C 58 % 89 % 0 % 991,8 hPa 0,0 l/m 11,2 km/h (2 Bft) 0 min 14,0 km/h (3 Bft)
25.02.2010 06:45 14,3 C 8,8 C 0,0 UV-I 0,0 C 58 % 89 % 0 % 991,8 hPa 0,0 l/m 11,2 km/h (2 Bft) 0 min 7,0 km/h (2 Bft)
25.02.2010 06:50 14,3 C 8,8 C 0,0 UV-I 0,0 C 58 % 89 % 0 % 991,8 hPa 0,0 l/m 11,6 km/h (2 Bft) 0 min 5,3 km/h (1 Bft)
25.02.2010 06:52 14,3 C 8,8 C 0,0 UV-I 0,0 C 58 % 89 % 0 % 991,8 hPa 0,1 l/m 12,0 km/h (2 Bft) 0 min 26,7 km/h (4 Bft)
25.02.2010 06:54 14,3 C 8,8 C 0,0 UV-I 0,0 C 58 % 89 % 0 % 991,8 hPa 0,0 l/m 12,8 km/h (3 Bft) 0 min 4,6 km/h (1 Bft)
25.02.2010 06:56 14,3 C 8,8 C 0,0 UV-I 0,0 C 58 % 89 % 0 % 991,8 hPa 0,0 l/m 12,8 km/h (3 Bft) 0 min 6,0 km/h (2 Bft)
25.02.2010 06:58 14,4 C 8,8 C 0,0 UV-I 0,0 C 58 % 89 % 0 % 991,8 hPa 0,0 l/m 13,3 km/h (3 Bft) 0 min 7,0 km/h (2 Bft)
25.02.2010 07:00 14,4 C 8,8 C 0,0 UV-I 0,0 C 58 % 89 % 0 % 991,8 hPa 0,0 l/m 14,1 km/h (3 Bft) 0 min 9,6 km/h (2 Bft)
25.02.2010 07:02 14,4 C 8,9 C 0,0 UV-I 0,0 C 58 % 89 % 0 % 991,8 hPa 0,0 l/m 14,5 km/h (3 Bft) 0 min 8,4 km/h (2 Bft)
25.02.2010 07:04 14,4 C 8,8 C 0,0 UV-I 0,0 C 58 % 89 % 0 % 991,8 hPa 0,0 l/m 12,0 km/h (2 Bft) 0 min 7,2 km/h (2 Bft)
25.02.2010 07:06 14,4 C 8,9 C 0,0 UV-I 0,0 C 58 % 89 % 0 % 991,8 hPa 0,0 l/m 12,4 km/h (3 Bft) 0 min 12,5 km/h (3 Bft)
25.02.2010 07:08 14,4 C 8,9 C 0,0 UV-I 0,0 C 58 % 89 % 0 % 991,8 hPa 0,0 l/m 12,0 km/h (2 Bft) 0 min 12,0 km/h (2 Bft)
25.02.2010 07:10 14,4 C 8,9 C 0,0 UV-I 0,0 C 58 % 89 % 0 % 991,8 hPa 0,0 l/m 12,0 km/h (2 Bft) 0 min 8,4 km/h (2 Bft)
25.02.2010 07:12 14,4 C 8,9 C 0,0 UV-I 0,0 C 58 % 88 % 0 % 992,1 hPa 0,0 l/m 12,0 km/h (2 Bft) 0 min 7,9 km/h (2 Bft)
25.02.2010 07:14 14,4 C 8,9 C 0,0 UV-I 0,0 C 58 % 88 % 0 % 992,1 hPa 0,0 l/m 13,3 km/h (3 Bft) 0 min 10,1 km/h (2 Bft)
25.02.2010 07:16 14,4 C 8,9 C 0,0 UV-I 0,0 C 58 % 88 % 0 % 992,1 hPa 0,0 l/m 13,3 km/h (3 Bft) 0 min 17,8 km/h (3 Bft)
25.02.2010 07:18 14,4 C 8,9 C 0,0 UV-I 0,0 C 58 % 88 % 0 % 992,1 hPa 0,0 l/m 14,5 km/h (3 Bft) 0 min 8,4 km/h (2 Bft)
25.02.2010 07:20 14,4 C 9,0 C 0,0 UV-I 0,0 C 58 % 88 % 0 % 992,1 hPa 0,0 l/m 14,1 km/h (3 Bft) 0 min 7,5 km/h (2 Bft)
25.02.2010 07:22 14,4 C 9,0 C 0,0 UV-I 0,0 C 58 % 88 % 0 % 992,1 hPa 0,0 l/m 12,4 km/h (3 Bft) 0 min 9,1 km/h (2 Bft)
25.02.2010 07:24 14,4 C 9,1 C 0,0 UV-I 0,0 C 58 % 88 % 0 % 992,1 hPa 0,0 l/m 12,0 km/h (2 Bft) 0 min 9,1 km/h (2 Bft)
25.02.2010 07:26 14,4 C 9,0 C 0,0 UV-I 0,0 C 58 % 87 % 0 % 992,1 hPa 0,0 l/m 12,0 km/h (2 Bft) 0 min 10,6 km/h (2 Bft)
25.02.2010 07:28 14,4 C 9,1 C 0,0 UV-I 0,0 C 58 % 87 % 0 % 992,1 hPa 0,0 l/m 11,6 km/h (2 Bft) 0 min 11,8 km/h (2 Bft)
25.02.2010 07:30 14,4 C 9,1 C 0,0 UV-I 0,0 C 58 % 87 % 0 % 992,1 hPa 0,0 l/m 12,0 km/h (2 Bft) 0 min 10,1 km/h (2 Bft)
25.02.2010 07:32 14,4 C 9,1 C 0,0 UV-I 0,0 C 58 % 87 % 0 % 992,5 hPa 0,0 l/m 13,3 km/h (3 Bft) 0 min 14,0 km/h (3 Bft)
25.02.2010 07:34 14,4 C 9,1 C 0,0 UV-I 0,0 C 58 % 87 % 0 % 992,5 hPa 0,0 l/m 15,3 km/h (3 Bft) 0 min 23,6 km/h (4 Bft)
25.02.2010 07:36 14,4 C 9,1 C 0,0 UV-I 0,0 C 58 % 87 % 0 % 992,5 hPa 0,0 l/m 14,9 km/h (3 Bft) 0 min 8,4 km/h (2 Bft)
25.02.2010 07:38 14,2 C 9,1 C 0,0 UV-I 0,0 C 58 % 87 % 0 % 992,5 hPa 0,0 l/m 13,7 km/h (3 Bft) 0 min 7,9 km/h (2 Bft)
25.02.2010 07:40 14,3 C 9,0 C 0,0 UV-I 0,0 C 58 % 87 % 0 % 992,5 hPa 0,0 l/m 13,7 km/h (3 Bft) 0 min 12,3 km/h (3 Bft)
25.02.2010 07:42 14,3 C 9,1 C 0,0 UV-I 0,0 C 58 % 86 % 0 % 992,5 hPa 0,0 l/m 14,9 km/h (3 Bft) 0 min 16,1 km/h (3 Bft)
25.02.2010 07:44 14,2 C 9,1 C 0,0 UV-I 0,0 C 58 % 86 % 0 % 992,5 hPa 0,0 l/m 15,3 km/h (3 Bft) 0 min 9,1 km/h (2 Bft)
25.02.2010 07:46 14,2 C 9,1 C 0,0 UV-I 0,0 C 58 % 86 % 0 % 992,5 hPa 0,0 l/m 14,5 km/h (3 Bft) 0 min 13,0 km/h (3 Bft)
25.02.2010 07:48 14,1 C 9,1 C 0,0 UV-I 0,0 C 58 % 86 % 0 % 992,5 hPa 0,0 l/m 14,5 km/h (3 Bft) 0 min 8,2 km/h (2 Bft)
25.02.2010 07:50 14,1 C 9,1 C 0,0 UV-I 0,0 C 58 % 86 % 0 % 992,5 hPa 0,0 l/m 15,7 km/h (3 Bft) 0 min 11,1 km/h (2 Bft)
25.02.2010 07:52 13,9 C 9,1 C 0,0 UV-I 0,0 C 58 % 86 % 0 % 992,4 hPa 0,0 l/m 12,8 km/h (3 Bft) 0 min 4,6 km/h (1 Bft)
25.02.2010 07:54 13,9 C 9,1 C 0,0 UV-I 0,0 C 58 % 86 % 0 % 992,4 hPa 0,0 l/m 12,0 km/h (2 Bft) 0 min 15,2 km/h (3 Bft)
25.02.2010 07:56 14,0 C 9,1 C 0,0 UV-I 0,0 C 59 % 86 % 0 % 992,4 hPa 0,0 l/m 11,6 km/h (2 Bft) 0 min 13,2 km/h (3 Bft)
25.02.2010 07:58 14,0 C 9,2 C 0,0 UV-I 0,0 C 59 % 86 % 0 % 992,4 hPa 0,0 l/m 11,6 km/h (2 Bft) 0 min 13,2 km/h (3 Bft)
25.02.2010 08:00 14,0 C 9,2 C 0,0 UV-I 0,0 C 59 % 86 % 0 % 992,4 hPa 0,0 l/m 12,0 km/h (2 Bft) 0 min 12,3 km/h (3 Bft)
25.02.2010 08:02 13,8 C 9,2 C 0,0 UV-I 0,0 C 59 % 86 % 0 % 992,4 hPa 0,0 l/m 12,4 km/h (3 Bft) 0 min 11,1 km/h (2 Bft)
25.02.2010 08:04 13,8 C 9,2 C 0,0 UV-I 0,0 C 59 % 86 % 0 % 992,4 hPa 0,0 l/m 12,8 km/h (3 Bft) 0 min 3,4 km/h (1 Bft)
25.02.2010 08:06 13,9 C 9,1 C 0,0 UV-I 0,0 C 59 % 86 % 0 % 992,4 hPa 0,0 l/m 12,8 km/h (3 Bft) 0 min 8,4 km/h (2 Bft)
25.02.2010 08:08 13,9 C 9,1 C 0,0 UV-I 0,0 C 59 % 86 % 0 % 992,4 hPa 0,0 l/m 12,8 km/h (3 Bft) 0 min 10,1 km/h (2 Bft)
25.02.2010 08:10 13,8 C 9,1 C 0,0 UV-I 0,0 C 59 % 86 % 0 % 992,4 hPa 0,0 l/m 12,4 km/h (3 Bft) 0 min 14,4 km/h (3 Bft)
25.02.2010 08:12 13,8 C 9,2 C 0,0 UV-I 0,0 C 59 % 86 % 0 % 992,6 hPa 0,0 l/m 11,2 km/h (2 Bft) 0 min 6,0 km/h (2 Bft)
25.02.2010 08:14 13,8 C 9,2 C 0,0 UV-I 0,0 C 59 % 86 % 0 % 992,6 hPa 0,0 l/m 12,0 km/h (2 Bft) 0 min 12,5 km/h (3 Bft)
25.02.2010 08:16 13,8 C 9,1 C 0,0 UV-I 0,0 C 59 % 86 % 0 % 992,6 hPa 0,0 l/m 12,4 km/h (3 Bft) 0 min 18,3 km/h (3 Bft)
25.02.2010 08:18 13,8 C 9,2 C 0,0 UV-I 0,0 C 59 % 86 % 0 % 992,6 hPa 0,0 l/m 12,4 km/h (3 Bft) 0 min 10,1 km/h (2 Bft)
25.02.2010 08:20 13,8 C 9,2 C 0,0 UV-I 0,0 C 59 % 86 % 0 % 992,6 hPa 0,0 l/m 12,8 km/h (3 Bft) 0 min 28,4 km/h (4 Bft)
25.02.2010 08:22 13,8 C 9,2 C 0,0 UV-I 0,0 C 59 % 86 % 0 % 992,6 hPa 0,0 l/m 13,7 km/h (3 Bft) 0 min 13,7 km/h (3 Bft)
25.02.2010 08:24 13,6 C 9,2 C 0,0 UV-I 0,0 C 59 % 86 % 0 % 992,6 hPa 0,0 l/m 14,9 km/h (3 Bft) 0 min 9,6 km/h (2 Bft)
25.02.2010 08:26 13,6 C 9,2 C 0,0 UV-I 0,0 C 59 % 86 % 0 % 992,6 hPa 0,0 l/m 15,3 km/h (3 Bft) 0 min 21,9 km/h (4 Bft)
25.02.2010 08:28 13,6 C 9,2 C 0,0 UV-I 0,0 C 59 % 86 % 0 % 992,6 hPa 0,0 l/m 14,9 km/h (3 Bft) 0 min 12,0 km/h (2 Bft)
25.02.2010 08:30 13,6 C 9,2 C 0,0 UV-I 0,0 C 59 % 86 % 0 % 992,6 hPa 0,0 l/m 15,3 km/h (3 Bft) 0 min 18,8 km/h (3 Bft)
25.02.2010 08:32 13,6 C 9,2 C 0,0 UV-I 0,0 C 59 % 86 % 0 % 992,9 hPa 0,0 l/m 14,9 km/h (3 Bft) 0 min 14,0 km/h (3 Bft)
25.02.2010 08:34 13,7 C 9,2 C 0,0 UV-I 0,0 C 59 % 86 % 0 % 992,9 hPa 0,0 l/m 14,9 km/h (3 Bft) 0 min 18,0 km/h (3 Bft)
25.02.2010 08:36 13,7 C 9,2 C 0,0 UV-I 0,0 C 59 % 86 % 0 % 992,9 hPa 0,0 l/m 14,1 km/h (3 Bft) 0 min 7,0 km/h (2 Bft)
25.02.2010 08:38 13,6 C 9,1 C 0,0 UV-I 0,0 C 59 % 86 % 0 % 992,9 hPa 0,0 l/m 12,8 km/h (3 Bft) 0 min 3,8 km/h (1 Bft)
25.02.2010 08:40 13,6 C 9,2 C 0,0 UV-I 0,0 C 60 % 86 % 0 % 992,9 hPa 0,0 l/m 12,0 km/h (2 Bft) 0 min 4,6 km/h (1 Bft)
25.02.2010 08:42 13,7 C 9,1 C 0,0 UV-I 0,0 C 60 % 87 % 0 % 992,9 hPa 0,0 l/m 10,0 km/h (2 Bft) 0 min 5,3 km/h (1 Bft)
25.02.2010 08:44 13,6 C 9,1 C 0,0 UV-I 0,0 C 60 % 87 % 0 % 992,9 hPa 0,0 l/m 10,0 km/h (2 Bft) 0 min 15,6 km/h (3 Bft)
25.02.2010 08:46 13,6 C 9,1 C 0,0 UV-I 0,0 C 60 % 87 % 0 % 992,9 hPa 0,0 l/m 10,0 km/h (2 Bft) 0 min 13,0 km/h (3 Bft)
25.02.2010 08:48 13,6 C 9,1 C 0,0 UV-I 0,0 C 60 % 87 % 0 % 992,9 hPa 0,0 l/m 10,8 km/h (2 Bft) 0 min 14,2 km/h (3 Bft)
25.02.2010 08:50 13,6 C 9,1 C 0,0 UV-I 0,0 C 60 % 87 % 0 % 992,9 hPa 0,0 l/m 11,6 km/h (2 Bft) 0 min 7,7 km/h (2 Bft)
25.02.2010 08:52 13,6 C 9,1 C 0,0 UV-I 0,0 C 60 % 87 % 0 % 993,1 hPa 0,0 l/m 11,6 km/h (2 Bft) 0 min 5,8 km/h (2 Bft)
25.02.2010 08:54 13,6 C 9,1 C 0,0 UV-I 0,0 C 60 % 87 % 0 % 993,1 hPa 0,0 l/m 11,2 km/h (2 Bft) 0 min 5,3 km/h (1 Bft)
25.02.2010 08:56 13,6 C 9,1 C 0,0 UV-I 0,0 C 60 % 87 % 0 % 993,1 hPa 0,0 l/m 9,2 km/h (2 Bft) 0 min 5,5 km/h (1 Bft)
25.02.2010 08:58 13,6 C 9,1 C 0,1 UV-I 0,0 C 60 % 87 % 0 % 993,1 hPa 0,0 l/m 8,4 km/h (2 Bft) 0 min 13,0 km/h (3 Bft)
25.02.2010 09:00 13,6 C 9,1 C 0,1 UV-I 0,0 C 60 % 87 % 0 % 993,1 hPa 0,0 l/m 8,0 km/h (2 Bft) 0 min 6,5 km/h (2 Bft)
25.02.2010 09:02 13,6 C 9,1 C 0,1 UV-I 0,0 C 60 % 87 % 0 % 993,1 hPa 0,0 l/m 8,0 km/h (2 Bft) 0 min 8,2 km/h (2 Bft)
25.02.2010 09:04 13,6 C 9,1 C 0,1 UV-I 0,0 C 60 % 87 % 0 % 993,1 hPa 0,0 l/m 8,8 km/h (2 Bft) 0 min 7,7 km/h (2 Bft)
25.02.2010 09:06 13,6 C 9,2 C 0,1 UV-I 0,0 C 60 % 87 % 0 % 993,1 hPa 0,0 l/m 9,6 km/h (2 Bft) 0 min 5,3 km/h (1 Bft)
25.02.2010 09:08 13,6 C 9,2 C 0,1 UV-I 0,0 C 60 % 87 % 0 % 993,1 hPa 0,0 l/m 10,4 km/h (2 Bft) 0 min 3,4 km/h (1 Bft)
25.02.2010 09:10 13,6 C 9,2 C 0,1 UV-I 0,0 C 60 % 87 % 0 % 993,1 hPa 0,0 l/m 10,0 km/h (2 Bft) 0 min 15,6 km/h (3 Bft)
25.02.2010 09:12 13,6 C 9,3 C 0,1 UV-I 0,0 C 60 % 86 % 0 % 993,1 hPa 0,0 l/m 10,8 km/h (2 Bft) 0 min 14,9 km/h (3 Bft)
25.02.2010 09:14 13,6 C 9,2 C 0,0 UV-I 0,0 C 60 % 86 % 0 % 993,1 hPa 0,0 l/m 12,4 km/h (3 Bft) 0 min 8,2 km/h (2 Bft)
25.02.2010 09:16 13,6 C 9,3 C 0,0 UV-I 0,0 C 60 % 86 % 0 % 993,1 hPa 0,0 l/m 12,4 km/h (3 Bft) 0 min 11,8 km/h (2 Bft)
25.02.2010 09:18 13,6 C 9,3 C 0,0 UV-I 0,0 C 60 % 86 % 0 % 993,1 hPa 0,0 l/m 12,4 km/h (3 Bft) 0 min 14,7 km/h (3 Bft)
25.02.2010 09:20 13,6 C 9,3 C 0,0 UV-I 0,0 C 60 % 86 % 0 % 993,1 hPa 0,0 l/m 13,3 km/h (3 Bft) 0 min 10,1 km/h (2 Bft)
25.02.2010 09:22 13,6 C 9,3 C 0,0 UV-I 0,0 C 60 % 86 % 0 % 993,1 hPa 0,0 l/m 12,4 km/h (3 Bft) 0 min 6,5 km/h (2 Bft)
25.02.2010 09:24 13,6 C 9,5 C 0,2 UV-I 0,0 C 60 % 85 % 0 % 993,1 hPa 0,0 l/m 11,2 km/h (2 Bft) 0 min 5,8 km/h (2 Bft)
25.02.2010 09:26 13,7 C 9,5 C 0,2 UV-I 0,3 C 60 % 85 % 9 % 993,1 hPa 0,0 l/m 12,0 km/h (2 Bft) 0 min 9,9 km/h (2 Bft)
25.02.2010 09:28 13,6 C 9,5 C 0,1 UV-I 0,3 C 60 % 85 % 9 % 993,1 hPa 0,0 l/m 13,3 km/h (3 Bft) 0 min 22,9 km/h (4 Bft)
25.02.2010 09:30 13,6 C 9,5 C 0,1 UV-I 0,3 C 60 % 85 % 9 % 993,1 hPa 0,0 l/m 12,8 km/h (3 Bft) 0 min 6,7 km/h (2 Bft)
25.02.2010 09:32 13,6 C 9,6 C 0,1 UV-I 0,2 C 60 % 85 % 6 % 993,2 hPa 0,0 l/m 14,5 km/h (3 Bft) 0 min 16,4 km/h (3 Bft)
25.02.2010 09:34 13,6 C 9,5 C 0,5 UV-I 0,3 C 60 % 84 % 9 % 993,2 hPa 0,0 l/m 14,9 km/h (3 Bft) 0 min 11,3 km/h (2 Bft)
25.02.2010 09:36 13,6 C 9,6 C 0,5 UV-I 0,2 C 60 % 84 % 6 % 993,2 hPa 0,0 l/m 14,9 km/h (3 Bft) 0 min 7,0 km/h (2 Bft)
25.02.2010 09:38 13,7 C 9,7 C 0,4 UV-I 0,2 C 60 % 84 % 6 % 993,2 hPa 0,0 l/m 14,1 km/h (3 Bft) 0 min 6,7 km/h (2 Bft)
25.02.2010 09:40 13,7 C 9,6 C 0,4 UV-I 0,3 C 60 % 84 % 9 % 993,2 hPa 0,0 l/m 13,7 km/h (3 Bft) 0 min 14,2 km/h (3 Bft)
25.02.2010 09:42 13,7 C 9,6 C 0,4 UV-I 0,3 C 60 % 84 % 9 % 993,2 hPa 0,0 l/m 14,1 km/h (3 Bft) 0 min 32,7 km/h (5 Bft)
25.02.2010 09:44 13,6 C 9,7 C 0,1 UV-I 0,1 C 60 % 83 % 3 % 993,2 hPa 0,0 l/m 14,1 km/h (3 Bft) 0 min 13,5 km/h (3 Bft)
25.02.2010 09:46 13,7 C 9,6 C 0,1 UV-I 0,2 C 60 % 83 % 6 % 993,2 hPa 0,0 l/m 13,7 km/h (3 Bft) 0 min 11,3 km/h (2 Bft)
25.02.2010 09:48 13,7 C 9,7 C 0,3 UV-I 0,3 C 60 % 83 % 9 % 993,2 hPa 0,0 l/m 12,4 km/h (3 Bft) 0 min 6,7 km/h (2 Bft)
25.02.2010 09:50 13,7 C 9,7 C 0,3 UV-I 0,1 C 60 % 83 % 3 % 993,2 hPa 0,0 l/m 14,1 km/h (3 Bft) 0 min 14,4 km/h (3 Bft)
25.02.2010 09:52 13,7 C 9,7 C 0,3 UV-I 0,0 C 60 % 83 % 0 % 993,6 hPa 0,0 l/m 16,1 km/h (3 Bft) 0 min 24,1 km/h (4 Bft)
25.02.2010 09:54 13,7 C 9,8 C 0,3 UV-I 0,0 C 60 % 82 % 0 % 993,6 hPa 0,0 l/m 16,9 km/h (3 Bft) 0 min 23,8 km/h (4 Bft)
25.02.2010 09:56 13,6 C 9,9 C 0,3 UV-I 0,0 C 60 % 82 % 0 % 993,6 hPa 0,0 l/m 16,9 km/h (3 Bft) 0 min 7,0 km/h (2 Bft)
25.02.2010 09:58 13,6 C 9,8 C 0,3 UV-I 0,0 C 60 % 82 % 0 % 993,6 hPa 0,0 l/m 16,1 km/h (3 Bft) 0 min 5,5 km/h (1 Bft)
25.02.2010 10:00 13,7 C 9,8 C 0,3 UV-I 0,0 C 60 % 82 % 0 % 993,6 hPa 0,0 l/m 16,9 km/h (3 Bft) 0 min 19,0 km/h (3 Bft)
25.02.2010 10:02 13,6 C 9,9 C 0,3 UV-I 0,0 C 60 % 82 % 0 % 993,6 hPa 0,0 l/m 16,1 km/h (3 Bft) 0 min 16,1 km/h (3 Bft)
25.02.2010 10:04 13,6 C 9,9 C 0,7 UV-I 0,0 C 60 % 82 % 0 % 993,6 hPa 0,0 l/m 14,5 km/h (3 Bft) 0 min 3,6 km/h (1 Bft)
25.02.2010 10:06 13,7 C 9,9 C 0,7 UV-I 0,0 C 60 % 82 % 0 % 993,6 hPa 0,0 l/m 13,7 km/h (3 Bft) 0 min 6,5 km/h (2 Bft)
25.02.2010 10:08 13,6 C 9,9 C 1,0 UV-I 0,0 C 60 % 82 % 0 % 993,6 hPa 0,0 l/m 13,3 km/h (3 Bft) 0 min 6,3 km/h (2 Bft)
25.02.2010 10:10 13,6 C 9,9 C 1,0 UV-I 0,0 C 60 % 82 % 0 % 993,6 hPa 0,0 l/m 14,5 km/h (3 Bft) 0 min 14,2 km/h (3 Bft)
25.02.2010 10:12 13,6 C 10,0 C 1,0 UV-I 0,4 C 60 % 82 % 11 % 993,6 hPa 0,0 l/m 12,4 km/h (3 Bft) 0 min 7,7 km/h (2 Bft)
25.02.2010 10:14 13,6 C 10,0 C 0,9 UV-I 0,5 C 60 % 82 % 14 % 993,6 hPa 0,0 l/m 12,0 km/h (2 Bft) 0 min 13,0 km/h (3 Bft)
25.02.2010 10:16 13,6 C 10,0 C 0,9 UV-I 0,3 C 60 % 81 % 9 % 993,6 hPa 0,0 l/m 13,7 km/h (3 Bft) 0 min 12,5 km/h (3 Bft)
25.02.2010 10:18 13,6 C 10,0 C 0,7 UV-I 0,3 C 60 % 81 % 9 % 993,6 hPa 0,0 l/m 13,3 km/h (3 Bft) 0 min 6,7 km/h (2 Bft)
25.02.2010 10:20 13,6 C 10,0 C 0,7 UV-I 0,4 C 60 % 81 % 11 % 993,6 hPa 0,0 l/m 14,1 km/h (3 Bft) 0 min 7,2 km/h (2 Bft)
25.02.2010 10:22 13,6 C 10,1 C 0,7 UV-I 0,1 C 60 % 81 % 3 % 993,6 hPa 0,0 l/m 14,5 km/h (3 Bft) 0 min 9,1 km/h (2 Bft)
25.02.2010 10:24 13,8 C 10,1 C 0,5 UV-I 0,0 C 60 % 81 % 0 % 993,6 hPa 0,0 l/m 16,1 km/h (3 Bft) 0 min 14,7 km/h (3 Bft)
25.02.2010 10:26 13,6 C 10,1 C 0,5 UV-I 0,0 C 59 % 80 % 0 % 993,6 hPa 0,0 l/m 16,1 km/h (3 Bft) 0 min 11,5 km/h (2 Bft)
25.02.2010 10:28 13,8 C 10,2 C 0,9 UV-I 0,0 C 60 % 80 % 0 % 993,6 hPa 0,0 l/m 17,3 km/h (3 Bft) 0 min 8,9 km/h (2 Bft)
25.02.2010 10:30 13,8 C 10,3 C 0,9 UV-I 0,0 C 59 % 80 % 0 % 993,6 hPa 0,0 l/m 17,3 km/h (3 Bft) 0 min 18,5 km/h (3 Bft)
25.02.2010 10:32 13,8 C 10,3 C 0,9 UV-I 0,0 C 59 % 81 % 0 % 993,9 hPa 0,0 l/m 16,1 km/h (3 Bft) 0 min 7,9 km/h (2 Bft)
25.02.2010 10:34 13,8 C 10,3 C 0,8 UV-I 0,0 C 59 % 80 % 0 % 993,9 hPa 0,0 l/m 15,3 km/h (3 Bft) 0 min 5,3 km/h (1 Bft)
25.02.2010 10:36 13,8 C 10,2 C 0,8 UV-I 0,2 C 59 % 80 % 6 % 993,9 hPa 0,0 l/m 14,1 km/h (3 Bft) 0 min 7,2 km/h (2 Bft)
25.02.2010 10:38 13,8 C 10,3 C 0,9 UV-I 0,3 C 59 % 80 % 9 % 993,9 hPa 0,0 l/m 12,8 km/h (3 Bft) 0 min 9,4 km/h (2 Bft)
25.02.2010 10:40 13,8 C 10,3 C 0,9 UV-I 0,6 C 59 % 80 % 17 % 993,9 hPa 0,0 l/m 11,2 km/h (2 Bft) 0 min 4,1 km/h (1 Bft)
25.02.2010 10:42 13,8 C 10,3 C 0,9 UV-I 0,9 C 59 % 80 % 26 % 993,9 hPa 0,0 l/m 11,6 km/h (2 Bft) 0 min 12,5 km/h (3 Bft)
25.02.2010 10:44 13,8 C 10,5 C 1,4 UV-I 1,0 C 59 % 79 % 29 % 993,9 hPa 0,0 l/m 11,6 km/h (2 Bft) 0 min 15,4 km/h (3 Bft)
25.02.2010 10:46 13,8 C 10,5 C 1,4 UV-I 1,0 C 59 % 79 % 29 % 993,9 hPa 0,0 l/m 13,3 km/h (3 Bft) 0 min 9,1 km/h (2 Bft)
25.02.2010 10:48 13,8 C 10,4 C 1,3 UV-I 0,9 C 59 % 79 % 26 % 993,9 hPa 0,0 l/m 14,1 km/h (3 Bft) 0 min 8,4 km/h (2 Bft)
25.02.2010 10:50 13,8 C 10,4 C 1,3 UV-I 0,9 C 59 % 79 % 26 % 993,9 hPa 0,0 l/m 14,1 km/h (3 Bft) 0 min 7,0 km/h (2 Bft)
25.02.2010 10:52 13,8 C 10,5 C 1,3 UV-I 0,7 C 59 % 79 % 20 % 993,9 hPa 0,0 l/m 15,3 km/h (3 Bft) 0 min 15,9 km/h (3 Bft)
25.02.2010 10:54 13,8 C 10,5 C 0,6 UV-I 0,5 C 59 % 79 % 14 % 993,9 hPa 0,0 l/m 15,3 km/h (3 Bft) 0 min 17,1 km/h (3 Bft)
25.02.2010 10:56 13,9 C 10,5 C 0,6 UV-I 0,6 C 59 % 79 % 17 % 993,9 hPa 0,0 l/m 14,5 km/h (3 Bft) 0 min 6,5 km/h (2 Bft)
25.02.2010 10:58 13,9 C 10,5 C 1,2 UV-I 0,8 C 59 % 79 % 23 % 993,9 hPa 0,0 l/m 12,8 km/h (3 Bft) 0 min 4,6 km/h (1 Bft)
25.02.2010 11:00 13,9 C 10,6 C 1,2 UV-I 0,7 C 59 % 79 % 20 % 993,9 hPa 0,0 l/m 13,7 km/h (3 Bft) 0 min 16,4 km/h (3 Bft)
25.02.2010 11:02 13,9 C 10,7 C 1,2 UV-I 0,5 C 59 % 78 % 14 % 993,9 hPa 0,0 l/m 14,9 km/h (3 Bft) 0 min 7,7 km/h (2 Bft)
25.02.2010 11:04 13,9 C 10,6 C 0,8 UV-I 0,6 C 59 % 79 % 17 % 993,9 hPa 0,0 l/m 14,5 km/h (3 Bft) 0 min 10,1 km/h (2 Bft)
25.02.2010 11:06 13,9 C 10,7 C 0,8 UV-I 0,5 C 59 % 78 % 14 % 993,9 hPa 0,0 l/m 14,5 km/h (3 Bft) 0 min 11,5 km/h (2 Bft)
25.02.2010 11:08 13,9 C 10,7 C 0,6 UV-I 0,3 C 59 % 78 % 9 % 993,9 hPa 0,0 l/m 15,3 km/h (3 Bft) 0 min 15,4 km/h (3 Bft)
25.02.2010 11:10 13,9 C 10,7 C 0,6 UV-I 0,3 C 59 % 78 % 9 % 993,9 hPa 0,0 l/m 14,5 km/h (3 Bft) 0 min 5,1 km/h (1 Bft)
25.02.2010 11:12 13,9 C 10,7 C 0,6 UV-I 0,5 C 59 % 79 % 14 % 994,2 hPa 0,0 l/m 12,0 km/h (2 Bft) 0 min 6,7 km/h (2 Bft)
25.02.2010 11:14 13,8 C 10,7 C 0,5 UV-I 0,5 C 59 % 78 % 14 % 994,2 hPa 0,0 l/m 12,0 km/h (2 Bft) 0 min 8,7 km/h (2 Bft)
25.02.2010 11:16 13,8 C 10,7 C 0,5 UV-I 0,5 C 59 % 79 % 14 % 994,2 hPa 0,0 l/m 11,6 km/h (2 Bft) 0 min 13,2 km/h (3 Bft)
25.02.2010 11:18 13,8 C 10,7 C 0,6 UV-I 0,4 C 59 % 79 % 11 % 994,2 hPa 0,0 l/m 11,6 km/h (2 Bft) 0 min 11,5 km/h (2 Bft)
25.02.2010 11:20 13,8 C 10,7 C 0,6 UV-I 0,4 C 59 % 79 % 11 % 994,2 hPa 0,0 l/m 9,6 km/h (2 Bft) 0 min 7,5 km/h (2 Bft)
25.02.2010 11:22 14,0 C 10,7 C 0,6 UV-I 0,5 C 59 % 79 % 14 % 994,2 hPa 0,0 l/m 10,4 km/h (2 Bft) 0 min 4,8 km/h (1 Bft)
25.02.2010 11:24 14,0 C 10,7 C 0,9 UV-I 0,6 C 59 % 78 % 17 % 994,2 hPa 0,0 l/m 11,6 km/h (2 Bft) 0 min 9,6 km/h (2 Bft)
25.02.2010 11:26 14,0 C 10,8 C 0,9 UV-I 0,3 C 59 % 78 % 9 % 994,2 hPa 0,0 l/m 13,3 km/h (3 Bft) 0 min 18,5 km/h (3 Bft)
25.02.2010 11:28 14,0 C 10,8 C 1,5 UV-I 0,5 C 59 % 78 % 14 % 994,2 hPa 0,0 l/m 12,4 km/h (3 Bft) 0 min 5,3 km/h (1 Bft)
25.02.2010 11:30 14,0 C 10,9 C 1,5 UV-I 0,4 C 59 % 78 % 11 % 994,2 hPa 0,0 l/m 13,3 km/h (3 Bft) 0 min 8,7 km/h (2 Bft)
25.02.2010 11:32 14,0 C 10,8 C 1,5 UV-I 0,5 C 59 % 78 % 14 % 994,4 hPa 0,0 l/m 13,3 km/h (3 Bft) 0 min 5,8 km/h (2 Bft)
25.02.2010 11:34 14,0 C 10,8 C 1,1 UV-I 0,6 C 58 % 78 % 17 % 994,4 hPa 0,0 l/m 12,8 km/h (3 Bft) 0 min 5,1 km/h (1 Bft)
25.02.2010 11:36 14,0 C 10,8 C 1,1 UV-I 0,6 C 59 % 77 % 17 % 994,4 hPa 0,0 l/m 12,8 km/h (3 Bft) 0 min 12,3 km/h (3 Bft)
25.02.2010 11:38 14,0 C 10,8 C 0,7 UV-I 0,7 C 58 % 77 % 20 % 994,4 hPa 0,0 l/m 12,0 km/h (2 Bft) 0 min 6,5 km/h (2 Bft)
25.02.2010 11:40 14,0 C 10,8 C 0,7 UV-I 0,6 C 58 % 77 % 17 % 994,4 hPa 0,0 l/m 12,4 km/h (3 Bft) 0 min 9,4 km/h (2 Bft)
25.02.2010 11:42 14,0 C 10,8 C 0,7 UV-I 0,5 C 58 % 77 % 14 % 994,4 hPa 0,0 l/m 12,4 km/h (3 Bft) 0 min 10,6 km/h (2 Bft)
25.02.2010 11:44 14,0 C 10,9 C 0,7 UV-I 0,4 C 58 % 77 % 11 % 994,4 hPa 0,0 l/m 12,8 km/h (3 Bft) 0 min 13,0 km/h (3 Bft)
25.02.2010 11:46 13,9 C 10,9 C 0,7 UV-I 0,3 C 58 % 77 % 9 % 994,4 hPa 0,0 l/m 13,3 km/h (3 Bft) 0 min 15,9 km/h (3 Bft)
25.02.2010 11:48 14,0 C 10,9 C 0,8 UV-I 0,3 C 58 % 77 % 9 % 994,4 hPa 0,0 l/m 13,7 km/h (3 Bft) 0 min 7,2 km/h (2 Bft)
25.02.2010 11:50 14,0 C 10,9 C 0,8 UV-I 0,2 C 58 % 77 % 6 % 994,4 hPa 0,0 l/m 13,7 km/h (3 Bft) 0 min 6,3 km/h (2 Bft)
25.02.2010 11:52 13,9 C 10,8 C 0,8 UV-I 0,2 C 58 % 77 % 6 % 994,2 hPa 0,0 l/m 14,1 km/h (3 Bft) 0 min 7,7 km/h (2 Bft)
25.02.2010 11:54 14,0 C 10,9 C 0,9 UV-I 0,1 C 58 % 77 % 3 % 994,2 hPa 0,0 l/m 14,5 km/h (3 Bft) 0 min 9,1 km/h (2 Bft)
25.02.2010 11:56 14,0 C 10,8 C 0,9 UV-I 0,2 C 58 % 77 % 6 % 994,2 hPa 0,0 l/m 14,5 km/h (3 Bft) 0 min 7,0 km/h (2 Bft)
25.02.2010 11:58 14,0 C 10,8 C 0,6 UV-I 0,2 C 58 % 77 % 6 % 994,2 hPa 0,0 l/m 13,7 km/h (3 Bft) 0 min 4,1 km/h (1 Bft)
25.02.2010 12:00 13,9 C 10,8 C 0,6 UV-I 0,3 C 58 % 77 % 9 % 994,2 hPa 0,0 l/m 13,7 km/h (3 Bft) 0 min 19,2 km/h (3 Bft)
25.02.2010 12:02 13,9 C 10,9 C 0,6 UV-I 0,1 C 58 % 77 % 3 % 994,2 hPa 0,0 l/m 14,1 km/h (3 Bft) 0 min 15,9 km/h (3 Bft)
25.02.2010 12:04 13,9 C 10,9 C 0,6 UV-I 0,1 C 58 % 77 % 3 % 994,2 hPa 0,0 l/m 14,1 km/h (3 Bft) 0 min 15,9 km/h (3 Bft)
25.02.2010 12:06 13,9 C 10,9 C 0,6 UV-I 0,2 C 58 % 77 % 6 % 994,2 hPa 0,0 l/m 14,5 km/h (3 Bft) 0 min 6,7 km/h (2 Bft)
25.02.2010 12:08 13,9 C 10,9 C 0,8 UV-I 0,3 C 58 % 77 % 9 % 994,2 hPa 0,0 l/m 13,7 km/h (3 Bft) 0 min 8,2 km/h (2 Bft)
25.02.2010 12:10 13,9 C 10,9 C 0,8 UV-I 0,5 C 58 % 77 % 14 % 994,2 hPa 0,0 l/m 12,4 km/h (3 Bft) 0 min 4,6 km/h (1 Bft)
25.02.2010 12:12 13,9 C 10,9 C 0,8 UV-I 0,6 C 58 % 77 % 17 % 994,1 hPa 0,0 l/m 11,6 km/h (2 Bft) 0 min 11,3 km/h (2 Bft)
25.02.2010 12:14 13,9 C 11,1 C 0,5 UV-I 0,4 C 58 % 77 % 11 % 994,1 hPa 0,0 l/m 10,4 km/h (2 Bft) 0 min 7,2 km/h (2 Bft)
25.02.2010 12:16 13,9 C 10,9 C 0,5 UV-I 0,5 C 58 % 77 % 14 % 994,1 hPa 0,0 l/m 8,8 km/h (2 Bft) 0 min 6,0 km/h (2 Bft)
25.02.2010 12:18 13,9 C 11,1 C 0,6 UV-I 0,3 C 58 % 78 % 9 % 994,1 hPa 0,0 l/m 8,8 km/h (2 Bft) 0 min 6,3 km/h (2 Bft)
25.02.2010 12:20 13,9 C 11,1 C 0,6 UV-I 0,3 C 58 % 78 % 9 % 994,1 hPa 0,0 l/m 10,0 km/h (2 Bft) 0 min 9,1 km/h (2 Bft)
25.02.2010 12:22 13,9 C 11,0 C 0,6 UV-I 0,4 C 58 % 77 % 11 % 994,1 hPa 0,0 l/m 11,2 km/h (2 Bft) 0 min 8,2 km/h (2 Bft)
25.02.2010 12:24 13,9 C 11,0 C 0,6 UV-I 0,3 C 58 % 77 % 9 % 994,1 hPa 0,0 l/m 10,8 km/h (2 Bft) 0 min 5,1 km/h (1 Bft)
25.02.2010 12:26 14,1 C 11,0 C 0,6 UV-I 0,4 C 58 % 77 % 11 % 994,1 hPa 0,0 l/m 11,6 km/h (2 Bft) 0 min 8,9 km/h (2 Bft)
25.02.2010 12:28 14,1 C 11,1 C 0,4 UV-I 0,3 C 58 % 77 % 9 % 994,1 hPa 0,0 l/m 11,2 km/h (2 Bft) 0 min 7,7 km/h (2 Bft)
25.02.2010 12:30 13,9 C 11,1 C 0,4 UV-I 0,3 C 58 % 78 % 9 % 994,1 hPa 0,0 l/m 10,8 km/h (2 Bft) 0 min 8,4 km/h (2 Bft)
25.02.2010 12:32 14,1 C 11,1 C 0,4 UV-I 0,3 C 58 % 77 % 9 % 994,2 hPa 0,0 l/m 9,6 km/h (2 Bft) 0 min 15,4 km/h (3 Bft)
25.02.2010 12:34 13,9 C 11,1 C 0,0 UV-I 0,2 C 58 % 77 % 6 % 994,2 hPa 0,0 l/m 10,0 km/h (2 Bft) 0 min 9,1 km/h (2 Bft)
25.02.2010 12:36 14,1 C 11,1 C 0,0 UV-I 0,2 C 58 % 76 % 6 % 994,2 hPa 0,0 l/m 10,0 km/h (2 Bft) 0 min 16,8 km/h (3 Bft)
25.02.2010 12:38 14,1 C 11,1 C 0,1 UV-I 0,2 C 58 % 76 % 6 % 994,2 hPa 0,0 l/m 10,8 km/h (2 Bft) 0 min 13,5 km/h (3 Bft)
25.02.2010 12:40 14,1 C 11,1 C 0,1 UV-I 0,1 C 58 % 76 % 3 % 994,2 hPa 0,0 l/m 11,2 km/h (2 Bft) 0 min 10,6 km/h (2 Bft)
25.02.2010 12:42 14,1 C 11,1 C 0,1 UV-I 0,0 C 58 % 76 % 0 % 994,2 hPa 0,0 l/m 12,0 km/h (2 Bft) 0 min 7,7 km/h (2 Bft)
25.02.2010 12:44 13,9 C 11,1 C 0,2 UV-I 0,0 C 58 % 76 % 0 % 994,2 hPa 0,0 l/m 12,0 km/h (2 Bft) 0 min 5,1 km/h (1 Bft)
25.02.2010 12:46 14,1 C 11,1 C 0,2 UV-I 0,1 C 58 % 76 % 3 % 994,2 hPa 0,0 l/m 12,0 km/h (2 Bft) 0 min 10,8 km/h (2 Bft)
25.02.2010 12:48 14,1 C 11,1 C 0,9 UV-I 0,0 C 58 % 76 % 0 % 994,2 hPa 0,0 l/m 12,4 km/h (3 Bft) 0 min 7,9 km/h (2 Bft)
25.02.2010 12:50 13,9 C 11,1 C 0,9 UV-I 0,1 C 58 % 76 % 3 % 994,2 hPa 0,0 l/m 12,0 km/h (2 Bft) 0 min 11,3 km/h (2 Bft)
25.02.2010 12:52 13,9 C 11,1 C 0,9 UV-I 0,1 C 58 % 76 % 3 % 994,2 hPa 0,0 l/m 12,0 km/h (2 Bft) 0 min 5,5 km/h (1 Bft)
25.02.2010 12:54 14,1 C 11,1 C 0,4 UV-I 0,1 C 58 % 76 % 3 % 994,2 hPa 0,0 l/m 12,4 km/h (3 Bft) 0 min 11,5 km/h (2 Bft)
25.02.2010 12:56 13,9 C 11,1 C 0,4 UV-I 0,0 C 58 % 75 % 0 % 994,2 hPa 0,0 l/m 13,7 km/h (3 Bft) 0 min 17,1 km/h (3 Bft)
25.02.2010 12:58 13,9 C 11,1 C 0,3 UV-I 0,0 C 58 % 75 % 0 % 994,2 hPa 0,0 l/m 13,3 km/h (3 Bft) 0 min 7,7 km/h (2 Bft)
25.02.2010 13:00 14,1 C 11,1 C 0,3 UV-I 0,0 C 58 % 74 % 0 % 994,2 hPa 0,0 l/m 13,7 km/h (3 Bft) 0 min 8,9 km/h (2 Bft)
25.02.2010 13:02 13,9 C 11,0 C 0,3 UV-I 0,1 C 58 % 74 % 3 % 994,2 hPa 0,0 l/m 13,7 km/h (3 Bft) 0 min 5,8 km/h (2 Bft)
25.02.2010 13:04 13,9 C 11,1 C 1,8 UV-I 0,2 C 58 % 74 % 6 % 994,2 hPa 0,0 l/m 14,1 km/h (3 Bft) 0 min 9,9 km/h (2 Bft)
25.02.2010 13:09 14,1 C 11,2 C 1,8 UV-I 0,5 C 58 % 74 % 14 % 994,2 hPa 0,0 l/m 13,3 km/h (3 Bft) 0 min 6,3 km/h (2 Bft)
25.02.2010 13:14 14,1 C 11,3 C 1,1 UV-I 0,4 C 58 % 74 % 11 % 994,1 hPa 0,0 l/m 14,1 km/h (3 Bft) 0 min 9,1 km/h (2 Bft)
25.02.2010 13:20 14,1 C 11,2 C 1,5 UV-I 1,1 C 58 % 75 % 31 % 994,1 hPa 0,0 l/m 10,4 km/h (2 Bft) 0 min 4,8 km/h (1 Bft)
25.02.2010 13:25 14,1 C 11,3 C 1,0 UV-I 1,1 C 58 % 73 % 31 % 994,1 hPa 0,0 l/m 10,8 km/h (2 Bft) 0 min 13,0 km/h (3 Bft)
25.02.2010 13:30 14,2 C 11,4 C 0,4 UV-I 0,7 C 57 % 74 % 20 % 994,1 hPa 0,0 l/m 10,8 km/h (2 Bft) 0 min 13,5 km/h (3 Bft)
25.02.2010 13:35 14,2 C 11,3 C 0,0 UV-I 0,5 C 57 % 73 % 14 % 993,8 hPa 0,0 l/m 12,0 km/h (2 Bft) 0 min 6,3 km/h (2 Bft)
25.02.2010 13:40 14,1 C 11,3 C 0,1 UV-I 0,2 C 57 % 73 % 6 % 993,8 hPa 0,0 l/m 12,0 km/h (2 Bft) 0 min 10,1 km/h (2 Bft)
25.02.2010 13:44 14,2 C 11,3 C 0,0 UV-I 0,0 C 57 % 73 % 0 % 993,8 hPa 0,0 l/m 11,2 km/h (2 Bft) 0 min 8,7 km/h (2 Bft)
25.02.2010 13:45 14,2 C 11,2 C 0,0 UV-I 0,0 C 57 % 73 % 0 % 993,8 hPa 0,0 l/m 11,6 km/h (2 Bft) 0 min 8,7 km/h (2 Bft)
25.02.2010 13:46 14,2 C 11,2 C 0,0 UV-I 0,0 C 57 % 73 % 0 % 993,8 hPa 0,0 l/m 11,6 km/h (2 Bft) 0 min 8,7 km/h (2 Bft)
25.02.2010 13:48 14,1 C 11,2 C 0,0 UV-I 0,0 C 57 % 73 % 0 % 993,8 hPa 0,0 l/m 11,6 km/h (2 Bft) 0 min 7,5 km/h (2 Bft)
25.02.2010 13:50 14,1 C 11,2 C 0,0 UV-I 0,0 C 57 % 73 % 0 % 993,8 hPa 0,0 l/m 10,8 km/h (2 Bft) 0 min 6,5 km/h (2 Bft)
25.02.2010 13:52 14,1 C 11,2 C 0,0 UV-I 0,0 C 57 % 73 % 0 % 993,8 hPa 0,0 l/m 11,6 km/h (2 Bft) 0 min 15,4 km/h (3 Bft)
25.02.2010 13:54 14,1 C 11,3 C 0,0 UV-I 0,0 C 57 % 72 % 0 % 993,8 hPa 0,0 l/m 13,7 km/h (3 Bft) 0 min 18,3 km/h (3 Bft)
25.02.2010 13:56 14,1 C 11,2 C 0,0 UV-I 0,0 C 57 % 73 % 0 % 993,8 hPa 0,0 l/m 13,3 km/h (3 Bft) 0 min 7,7 km/h (2 Bft)
25.02.2010 13:58 14,1 C 11,1 C 0,0 UV-I 0,0 C 57 % 73 % 0 % 993,8 hPa 0,0 l/m 12,8 km/h (3 Bft) 0 min 13,2 km/h (3 Bft)
25.02.2010 14:00 14,1 C 11,2 C 0,0 UV-I 0,0 C 57 % 73 % 0 % 993,8 hPa 0,0 l/m 14,5 km/h (3 Bft) 0 min 11,8 km/h (2 Bft)
25.02.2010 14:02 14,1 C 11,1 C 0,0 UV-I 0,0 C 57 % 73 % 0 % 993,8 hPa 0,0 l/m 14,9 km/h (3 Bft) 0 min 9,6 km/h (2 Bft)
25.02.2010 14:04 14,1 C 11,1 C 0,0 UV-I 0,0 C 57 % 73 % 0 % 993,8 hPa 0,0 l/m 14,1 km/h (3 Bft) 0 min 13,7 km/h (3 Bft)
25.02.2010 14:06 14,1 C 11,1 C 0,0 UV-I 0,0 C 57 % 73 % 0 % 993,8 hPa 0,0 l/m 13,3 km/h (3 Bft) 0 min 9,1 km/h (2 Bft)
25.02.2010 14:08 14,1 C 11,1 C 0,0 UV-I 0,0 C 57 % 73 % 0 % 993,8 hPa 0,0 l/m 13,7 km/h (3 Bft) 0 min 7,5 km/h (2 Bft)
25.02.2010 14:10 14,1 C 11,1 C 0,0 UV-I 0,0 C 57 % 73 % 0 % 993,8 hPa 0,0 l/m 14,1 km/h (3 Bft) 0 min 17,3 km/h (3 Bft)
25.02.2010 14:12 14,1 C 11,1 C 0,0 UV-I 0,0 C 57 % 73 % 0 % 993,8 hPa 0,0 l/m 14,5 km/h (3 Bft) 0 min 13,2 km/h (3 Bft)
25.02.2010 14:14 14,1 C 11,1 C 0,0 UV-I 0,0 C 57 % 73 % 0 % 993,8 hPa 0,0 l/m 14,1 km/h (3 Bft) 0 min 7,5 km/h (2 Bft)
25.02.2010 14:16 14,1 C 11,0 C 0,0 UV-I 0,0 C 57 % 73 % 0 % 993,8 hPa 0,0 l/m 13,3 km/h (3 Bft) 0 min 8,2 km/h (2 Bft)
25.02.2010 14:18 13,9 C 11,1 C 0,0 UV-I 0,0 C 57 % 73 % 0 % 993,8 hPa 0,0 l/m 12,8 km/h (3 Bft) 0 min 6,3 km/h (2 Bft)
25.02.2010 14:20 14,1 C 11,1 C 0,0 UV-I 0,0 C 57 % 73 % 0 % 993,8 hPa 0,0 l/m 11,6 km/h (2 Bft) 0 min 7,5 km/h (2 Bft)
25.02.2010 14:22 13,9 C 11,1 C 0,0 UV-I 0,0 C 57 % 74 % 0 % 993,8 hPa 0,0 l/m 10,4 km/h (2 Bft) 0 min 13,0 km/h (3 Bft)
25.02.2010 14:24 13,9 C 11,1 C 0,0 UV-I 0,0 C 57 % 74 % 0 % 993,8 hPa 0,0 l/m 10,0 km/h (2 Bft) 0 min 6,0 km/h (2 Bft)
25.02.2010 14:26 13,9 C 10,9 C 0,0 UV-I 0,0 C 57 % 74 % 0 % 993,8 hPa 0,0 l/m 10,8 km/h (2 Bft) 0 min 8,2 km/h (2 Bft)
25.02.2010 14:28 13,9 C 10,9 C 0,0 UV-I 0,0 C 57 % 74 % 0 % 993,8 hPa 0,0 l/m 11,2 km/h (2 Bft) 0 min 8,7 km/h (2 Bft)
25.02.2010 14:30 13,9 C 10,9 C 0,0 UV-I 0,0 C 57 % 74 % 0 % 993,8 hPa 0,0 l/m 11,2 km/h (2 Bft) 0 min 9,9 km/h (2 Bft)
25.02.2010 14:32 13,9 C 10,9 C 0,0 UV-I 0,0 C 57 % 74 % 0 % 993,4 hPa 0,0 l/m 11,2 km/h (2 Bft) 0 min 5,8 km/h (2 Bft)
25.02.2010 14:34 13,9 C 10,9 C 0,1 UV-I 0,0 C 57 % 74 % 0 % 993,4 hPa 0,0 l/m 10,4 km/h (2 Bft) 0 min 2,4 km/h (1 Bft)
25.02.2010 14:36 14,0 C 10,8 C 0,1 UV-I 0,0 C 57 % 75 % 0 % 993,4 hPa 0,0 l/m 8,8 km/h (2 Bft) 0 min 2,4 km/h (1 Bft)
25.02.2010 14:38 13,9 C 10,9 C 0,3 UV-I 0,0 C 57 % 75 % 0 % 993,4 hPa 0,0 l/m 8,4 km/h (2 Bft) 0 min 8,2 km/h (2 Bft)
25.02.2010 14:40 13,9 C 10,8 C 0,3 UV-I 0,0 C 57 % 75 % 0 % 993,4 hPa 0,0 l/m 7,6 km/h (2 Bft) 0 min 6,0 km/h (2 Bft)
25.02.2010 14:42 14,0 C 10,8 C 0,3 UV-I 0,0 C 57 % 75 % 0 % 993,4 hPa 0,0 l/m 8,4 km/h (2 Bft) 0 min 9,1 km/h (2 Bft)
25.02.2010 14:44 13,9 C 10,9 C 0,2 UV-I 0,0 C 57 % 75 % 0 % 993,4 hPa 0,0 l/m 8,8 km/h (2 Bft) 0 min 7,2 km/h (2 Bft)
25.02.2010 14:46 14,0 C 10,9 C 0,2 UV-I 0,0 C 57 % 75 % 0 % 993,4 hPa 0,0 l/m 10,0 km/h (2 Bft) 0 min 7,2 km/h (2 Bft)
25.02.2010 14:48 14,0 C 10,8 C 0,2 UV-I 0,0 C 57 % 75 % 0 % 993,4 hPa 0,0 l/m 10,8 km/h (2 Bft) 0 min 10,6 km/h (2 Bft)
25.02.2010 14:50 14,0 C 10,7 C 0,2 UV-I 0,0 C 57 % 75 % 0 % 993,4 hPa 0,0 l/m 10,4 km/h (2 Bft) 0 min 4,8 km/h (1 Bft)
25.02.2010 14:52 14,0 C 10,8 C 0,2 UV-I 0,0 C 57 % 75 % 0 % 993,2 hPa 0,0 l/m 9,6 km/h (2 Bft) 0 min 2,6 km/h (1 Bft)
25.02.2010 14:56 14,0 C 10,8 C 0,3 UV-I 0,0 C 57 % 75 % 0 % 993,2 hPa 0,0 l/m 8,0 km/h (2 Bft) 0 min 7,2 km/h (2 Bft)
25.02.2010 14:58 13,9 C 10,8 C 0,3 UV-I 0,0 C 57 % 75 % 0 % 993,2 hPa 0,0 l/m 8,0 km/h (2 Bft) 0 min 7,7 km/h (2 Bft)
25.02.2010 15:00 13,9 C 10,8 C 0,3 UV-I 0,0 C 57 % 75 % 0 % 993,2 hPa 0,0 l/m 7,2 km/h (2 Bft) 0 min 4,1 km/h (1 Bft)
25.02.2010 15:02 13,9 C 10,8 C 0,3 UV-I 0,0 C 57 % 75 % 0 % 993,2 hPa 0,0 l/m 7,2 km/h (2 Bft) 0 min 3,1 km/h (1 Bft)
25.02.2010 15:04 13,9 C 10,8 C 0,4 UV-I 0,0 C 57 % 75 % 0 % 993,2 hPa 0,0 l/m 7,2 km/h (2 Bft) 0 min 7,2 km/h (2 Bft)
25.02.2010 15:06 13,9 C 10,7 C 0,4 UV-I 0,1 C 57 % 75 % 3 % 993,2 hPa 0,0 l/m 7,6 km/h (2 Bft) 0 min 8,7 km/h (2 Bft)
25.02.2010 15:08 13,9 C 10,8 C 0,2 UV-I 0,0 C 57 % 75 % 0 % 993,2 hPa 0,0 l/m 7,2 km/h (2 Bft) 0 min 4,8 km/h (1 Bft)
25.02.2010 15:10 13,9 C 10,8 C 0,2 UV-I 0,0 C 57 % 75 % 0 % 993,2 hPa 0,0 l/m 7,6 km/h (2 Bft) 0 min 5,8 km/h (2 Bft)
25.02.2010 15:14 13,9 C 10,8 C 0,0 UV-I 0,0 C 57 % 75 % 0 % 993,1 hPa 0,0 l/m 7,6 km/h (2 Bft) 0 min 13,2 km/h (3 Bft)
25.02.2010 15:16 13,9 C 10,7 C 0,0 UV-I 0,0 C 57 % 75 % 0 % 993,1 hPa 0,0 l/m 7,6 km/h (2 Bft) 0 min 3,4 km/h (1 Bft)
25.02.2010 15:18 13,9 C 10,7 C 0,2 UV-I 0,0 C 57 % 75 % 0 % 993,1 hPa 0,0 l/m 7,2 km/h (2 Bft) 0 min 5,3 km/h (1 Bft)
25.02.2010 15:20 13,9 C 10,7 C 0,2 UV-I 0,0 C 57 % 75 % 0 % 993,1 hPa 0,0 l/m 7,2 km/h (2 Bft) 0 min 16,1 km/h (3 Bft)
25.02.2010 15:22 13,9 C 10,7 C 0,2 UV-I 0,0 C 57 % 75 % 0 % 993,1 hPa 0,0 l/m 7,6 km/h (2 Bft) 0 min 5,3 km/h (1 Bft)
25.02.2010 15:24 13,9 C 10,8 C 0,2 UV-I 0,0 C 57 % 75 % 0 % 993,1 hPa 0,0 l/m 8,0 km/h (2 Bft) 0 min 5,1 km/h (1 Bft)
25.02.2010 15:26 13,9 C 10,8 C 0,2 UV-I 0,0 C 57 % 75 % 0 % 993,1 hPa 0,0 l/m 8,0 km/h (2 Bft) 0 min 19,0 km/h (3 Bft)
25.02.2010 15:28 14,1 C 10,8 C 0,4 UV-I 0,0 C 57 % 75 % 0 % 993,1 hPa 0,0 l/m 7,6 km/h (2 Bft) 0 min 9,6 km/h (2 Bft)
25.02.2010 15:32 14,1 C 10,8 C 0,4 UV-I 0,0 C 57 % 76 % 0 % 992,8 hPa 0,0 l/m 6,0 km/h (2 Bft) 0 min 2,4 km/h (1 Bft)
25.02.2010 15:34 14,1 C 10,8 C 0,4 UV-I 0,0 C 57 % 76 % 0 % 992,8 hPa 0,0 l/m 6,0 km/h (2 Bft) 0 min 6,5 km/h (2 Bft)
25.02.2010 15:36 14,1 C 10,8 C 0,4 UV-I 0,1 C 57 % 76 % 3 % 992,8 hPa 0,0 l/m 6,4 km/h (2 Bft) 0 min 8,9 km/h (2 Bft)
25.02.2010 15:38 14,1 C 10,9 C 0,0 UV-I 0,0 C 57 % 76 % 0 % 992,8 hPa 0,0 l/m 6,8 km/h (2 Bft) 0 min 6,5 km/h (2 Bft)
25.02.2010 15:40 14,1 C 10,8 C 0,0 UV-I 0,1 C 57 % 76 % 3 % 992,8 hPa 0,0 l/m 6,0 km/h (2 Bft) 0 min 2,4 km/h (1 Bft)
25.02.2010 15:42 14,1 C 10,8 C 0,0 UV-I 0,1 C 57 % 76 % 3 % 992,8 hPa 0,0 l/m 7,2 km/h (2 Bft) 0 min 3,8 km/h (1 Bft)
25.02.2010 15:44 14,1 C 10,9 C 0,1 UV-I 0,0 C 57 % 76 % 0 % 992,8 hPa 0,0 l/m 6,8 km/h (2 Bft) 0 min 11,5 km/h (2 Bft)
25.02.2010 15:46 14,1 C 10,8 C 0,1 UV-I 0,1 C 57 % 76 % 3 % 992,8 hPa 0,0 l/m 7,2 km/h (2 Bft) 0 min 5,5 km/h (1 Bft)
25.02.2010 15:48 14,1 C 10,8 C 0,3 UV-I 0,1 C 57 % 76 % 3 % 992,8 hPa 0,0 l/m 7,6 km/h (2 Bft) 0 min 7,0 km/h (2 Bft)
25.02.2010 15:52 14,1 C 10,8 C 0,3 UV-I 0,2 C 57 % 76 % 6 % 992,3 hPa 0,0 l/m 8,4 km/h (2 Bft) 0 min 9,6 km/h (2 Bft)
25.02.2010 15:54 14,2 C 10,9 C 0,3 UV-I 0,1 C 57 % 76 % 3 % 992,3 hPa 0,0 l/m 10,0 km/h (2 Bft) 0 min 3,6 km/h (1 Bft)
25.02.2010 15:56 14,2 C 10,8 C 0,3 UV-I 0,3 C 57 % 76 % 9 % 992,3 hPa 0,0 l/m 10,0 km/h (2 Bft) 0 min 12,0 km/h (2 Bft)
25.02.2010 15:58 14,2 C 10,9 C 0,4 UV-I 0,2 C 57 % 75 % 6 % 992,3 hPa 0,0 l/m 10,4 km/h (2 Bft) 0 min 3,4 km/h (1 Bft)
25.02.2010 16:00 14,2 C 10,9 C 0,4 UV-I 0,2 C 57 % 75 % 6 % 992,3 hPa 0,0 l/m 9,2 km/h (2 Bft) 0 min 2,6 km/h (1 Bft)
25.02.2010 16:02 14,2 C 10,9 C 0,4 UV-I 0,2 C 57 % 75 % 6 % 992,3 hPa 0,0 l/m 8,4 km/h (2 Bft) 0 min 6,0 km/h (2 Bft)
25.02.2010 16:04 14,2 C 10,9 C 0,3 UV-I 0,2 C 57 % 75 % 6 % 992,3 hPa 0,0 l/m 7,6 km/h (2 Bft) 0 min 11,1 km/h (2 Bft)
25.02.2010 16:06 14,2 C 10,9 C 0,3 UV-I 0,1 C 57 % 75 % 3 % 992,3 hPa 0,0 l/m 9,2 km/h (2 Bft) 0 min 8,9 km/h (2 Bft)
25.02.2010 16:10 14,2 C 10,9 C 0,3 UV-I 0,0 C 57 % 75 % 0 % 992,3 hPa 0,0 l/m 9,6 km/h (2 Bft) 0 min 9,6 km/h (2 Bft)
25.02.2010 16:12 14,2 C 10,9 C 0,3 UV-I 0,0 C 57 % 74 % 0 % 992,3 hPa 0,0 l/m 10,4 km/h (2 Bft) 0 min 5,3 km/h (1 Bft)
25.02.2010 16:14 14,2 C 10,9 C 0,3 UV-I 0,0 C 57 % 74 % 0 % 992,3 hPa 0,0 l/m 10,4 km/h (2 Bft) 0 min 9,6 km/h (2 Bft)
25.02.2010 16:16 14,2 C 10,9 C 0,3 UV-I 0,0 C 57 % 74 % 0 % 992,3 hPa 0,0 l/m 9,2 km/h (2 Bft) 0 min 4,1 km/h (1 Bft)
25.02.2010 16:18 14,2 C 10,9 C 0,0 UV-I 0,0 C 57 % 74 % 0 % 992,3 hPa 0,0 l/m 8,8 km/h (2 Bft) 0 min 7,0 km/h (2 Bft)
25.02.2010 16:20 14,2 C 10,9 C 0,0 UV-I 0,0 C 57 % 74 % 0 % 992,3 hPa 0,0 l/m 8,4 km/h (2 Bft) 0 min 10,1 km/h (2 Bft)
25.02.2010 16:22 14,2 C 10,9 C 0,0 UV-I 0,0 C 57 % 74 % 0 % 992,3 hPa 0,0 l/m 10,4 km/h (2 Bft) 0 min 12,8 km/h (3 Bft)
25.02.2010 16:24 14,2 C 11,0 C 0,0 UV-I 0,0 C 57 % 73 % 0 % 992,3 hPa 0,0 l/m 11,2 km/h (2 Bft) 0 min 2,9 km/h (1 Bft)
25.02.2010 16:28 14,2 C 10,9 C 0,1 UV-I 0,0 C 56 % 74 % 0 % 992,3 hPa 0,0 l/m 9,6 km/h (2 Bft) 0 min 4,6 km/h (1 Bft)
25.02.2010 16:30 14,2 C 10,9 C 0,1 UV-I 0,0 C 56 % 74 % 0 % 992,3 hPa 0,0 l/m 9,2 km/h (2 Bft) 0 min 7,5 km/h (2 Bft)
25.02.2010 16:32 14,1 C 10,9 C 0,1 UV-I 0,0 C 56 % 74 % 0 % 992,1 hPa 0,0 l/m 8,8 km/h (2 Bft) 0 min 10,3 km/h (2 Bft)
25.02.2010 16:34 14,2 C 10,9 C 0,0 UV-I 0,0 C 56 % 74 % 0 % 992,1 hPa 0,0 l/m 6,4 km/h (2 Bft) 0 min 5,8 km/h (2 Bft)
25.02.2010 16:36 14,2 C 10,9 C 0,0 UV-I 0,0 C 56 % 74 % 0 % 992,1 hPa 0,0 l/m 6,8 km/h (2 Bft) 0 min 9,6 km/h (2 Bft)
25.02.2010 16:38 14,1 C 10,9 C 0,0 UV-I 0,0 C 56 % 74 % 0 % 992,1 hPa 0,0 l/m 7,6 km/h (2 Bft) 0 min 4,6 km/h (1 Bft)
25.02.2010 16:40 14,2 C 10,9 C 0,0 UV-I 0,0 C 56 % 74 % 0 % 992,1 hPa 0,0 l/m 7,2 km/h (2 Bft) 0 min 6,5 km/h (2 Bft)
25.02.2010 16:42 14,2 C 10,9 C 0,0 UV-I 0,0 C 56 % 74 % 0 % 992,1 hPa 0,0 l/m 7,6 km/h (2 Bft) 0 min 3,1 km/h (1 Bft)
25.02.2010 16:44 14,2 C 10,9 C 0,0 UV-I 0,0 C 56 % 74 % 0 % 992,1 hPa 0,0 l/m 6,8 km/h (2 Bft) 0 min 5,3 km/h (1 Bft)
25.02.2010 16:48 14,2 C 10,9 C 0,0 UV-I 0,0 C 56 % 74 % 0 % 992,1 hPa 0,0 l/m 6,0 km/h (2 Bft) 0 min 5,1 km/h (1 Bft)
25.02.2010 16:50 14,2 C 10,8 C 0,0 UV-I 0,0 C 56 % 74 % 0 % 992,1 hPa 0,0 l/m 6,0 km/h (2 Bft) 0 min 0,0 km/h (0 Bft)
25.02.2010 16:52 14,2 C 10,8 C 0,0 UV-I 0,0 C 56 % 74 % 0 % 992,1 hPa 0,0 l/m 5,6 km/h (1 Bft) 0 min 7,2 km/h (2 Bft)
25.02.2010 16:54 14,2 C 10,9 C 0,0 UV-I 0,0 C 56 % 74 % 0 % 992,1 hPa 0,0 l/m 6,0 km/h (2 Bft) 0 min 7,2 km/h (2 Bft)
25.02.2010 16:56 14,2 C 10,8 C 0,0 UV-I 0,0 C 56 % 74 % 0 % 992,1 hPa 0,0 l/m 6,8 km/h (2 Bft) 0 min 7,9 km/h (2 Bft)
25.02.2010 16:58 14,2 C 10,8 C 0,0 UV-I 0,0 C 56 % 74 % 0 % 992,1 hPa 0,0 l/m 7,6 km/h (2 Bft) 0 min 9,9 km/h (2 Bft)
25.02.2010 17:00 14,2 C 10,8 C 0,0 UV-I 0,0 C 56 % 74 % 0 % 992,1 hPa 0,0 l/m 8,4 km/h (2 Bft) 0 min 6,7 km/h (2 Bft)
25.02.2010 17:02 14,2 C 10,8 C 0,0 UV-I 0,0 C 56 % 74 % 0 % 992,1 hPa 0,0 l/m 9,6 km/h (2 Bft) 0 min 3,6 km/h (1 Bft)
25.02.2010 17:08 14,2 C 10,8 C 0,0 UV-I 0,0 C 56 % 74 % 0 % 992,1 hPa 0,0 l/m 10,8 km/h (2 Bft) 0 min 11,3 km/h (2 Bft)
25.02.2010 17:10 14,2 C 10,8 C 0,0 UV-I 0,0 C 56 % 74 % 0 % 992,1 hPa 0,0 l/m 10,8 km/h (2 Bft) 0 min 10,8 km/h (2 Bft)
25.02.2010 17:12 14,1 C 10,8 C 0,0 UV-I 0,0 C 56 % 74 % 0 % 991,5 hPa 0,0 l/m 10,0 km/h (2 Bft) 0 min 7,5 km/h (2 Bft)
25.02.2010 17:14 14,1 C 10,7 C 0,0 UV-I 0,0 C 56 % 74 % 0 % 991,5 hPa 0,0 l/m 10,0 km/h (2 Bft) 0 min 7,2 km/h (2 Bft)
25.02.2010 17:16 14,2 C 10,7 C 0,0 UV-I 0,0 C 56 % 75 % 0 % 991,5 hPa 0,0 l/m 10,0 km/h (2 Bft) 0 min 4,8 km/h (1 Bft)
25.02.2010 17:18 14,2 C 10,7 C 0,0 UV-I 0,0 C 56 % 75 % 0 % 991,5 hPa 0,0 l/m 8,4 km/h (2 Bft) 0 min 6,5 km/h (2 Bft)
25.02.2010 17:20 14,2 C 10,7 C 0,0 UV-I 0,0 C 56 % 75 % 0 % 991,5 hPa 0,0 l/m 7,6 km/h (2 Bft) 0 min 8,4 km/h (2 Bft)
25.02.2010 17:22 14,1 C 10,6 C 0,0 UV-I 0,0 C 56 % 75 % 0 % 991,5 hPa 0,0 l/m 8,4 km/h (2 Bft) 0 min 7,7 km/h (2 Bft)
25.02.2010 17:24 14,1 C 10,6 C 0,0 UV-I 0,0 C 56 % 75 % 0 % 991,5 hPa 0,0 l/m 6,8 km/h (2 Bft) 0 min 0,0 km/h (0 Bft)
25.02.2010 17:26 14,2 C 10,7 C 0,0 UV-I 0,0 C 56 % 75 % 0 % 991,5 hPa 0,0 l/m 6,8 km/h (2 Bft) 0 min 3,1 km/h (1 Bft)
25.02.2010 17:28 14,1 C 10,7 C 0,0 UV-I 0,0 C 56 % 75 % 0 % 991,5 hPa 0,0 l/m 8,0 km/h (2 Bft) 0 min 7,5 km/h (2 Bft)
25.02.2010 17:30 14,1 C 10,6 C 0,0 UV-I 0,0 C 56 % 75 % 0 % 991,5 hPa 0,0 l/m 8,4 km/h (2 Bft) 0 min 4,6 km/h (1 Bft)
25.02.2010 17:32 14,1 C 10,5 C 0,0 UV-I 0,0 C 56 % 75 % 0 % 991,1 hPa 0,0 l/m 7,2 km/h (2 Bft) 0 min 4,8 km/h (1 Bft)
25.02.2010 17:34 14,1 C 10,6 C 0,0 UV-I 0,0 C 56 % 75 % 0 % 991,1 hPa 0,0 l/m 7,2 km/h (2 Bft) 0 min 0,0 km/h (0 Bft)
25.02.2010 17:36 14,1 C 10,5 C 0,0 UV-I 0,0 C 56 % 75 % 0 % 991,1 hPa 0,0 l/m 8,0 km/h (2 Bft) 0 min 3,8 km/h (1 Bft)
25.02.2010 17:38 14,1 C 10,5 C 0,0 UV-I 0,0 C 56 % 75 % 0 % 991,1 hPa 0,0 l/m 6,8 km/h (2 Bft) 0 min 5,1 km/h (1 Bft)
25.02.2010 17:42 14,1 C 10,4 C 0,0 UV-I 0,0 C 56 % 76 % 0 % 991,1 hPa 0,0 l/m 7,6 km/h (2 Bft) 0 min 12,3 km/h (3 Bft)
25.02.2010 17:46 14,1 C 10,4 C 0,0 UV-I 0,0 C 56 % 75 % 0 % 991,1 hPa 0,0 l/m 7,6 km/h (2 Bft) 0 min 8,4 km/h (2 Bft)
25.02.2010 17:48 14,1 C 10,3 C 0,0 UV-I 0,0 C 56 % 76 % 0 % 991,1 hPa 0,0 l/m 7,6 km/h (2 Bft) 0 min 5,3 km/h (1 Bft)
25.02.2010 17:50 14,1 C 10,4 C 0,0 UV-I 0,0 C 56 % 76 % 0 % 991,1 hPa 0,0 l/m 9,2 km/h (2 Bft) 0 min 12,0 km/h (2 Bft)
25.02.2010 17:52 14,1 C 10,3 C 0,0 UV-I 0,0 C 56 % 76 % 0 % 991,1 hPa 0,0 l/m 9,6 km/h (2 Bft) 0 min 5,5 km/h (1 Bft)
25.02.2010 17:54 14,1 C 10,3 C 0,0 UV-I 0,0 C 56 % 76 % 0 % 991,1 hPa 0,0 l/m 10,0 km/h (2 Bft) 0 min 6,5 km/h (2 Bft)
25.02.2010 17:56 14,1 C 10,3 C 0,0 UV-I 0,0 C 56 % 76 % 0 % 991,1 hPa 0,0 l/m 9,6 km/h (2 Bft) 0 min 9,1 km/h (2 Bft)
25.02.2010 17:58 14,1 C 10,3 C 0,0 UV-I 0,0 C 56 % 76 % 0 % 991,1 hPa 0,0 l/m 10,0 km/h (2 Bft) 0 min 2,9 km/h (1 Bft)
25.02.2010 18:00 14,1 C 10,3 C 0,0 UV-I 0,0 C 56 % 76 % 0 % 991,1 hPa 0,0 l/m 9,2 km/h (2 Bft) 0 min 5,3 km/h (1 Bft)
25.02.2010 18:04 14,1 C 10,3 C 0,0 UV-I 0,0 C 56 % 76 % 0 % 991,1 hPa 0,0 l/m 6,0 km/h (2 Bft) 0 min 3,6 km/h (1 Bft)
25.02.2010 18:06 14,1 C 10,3 C 0,0 UV-I 0,0 C 56 % 76 % 0 % 991,1 hPa 0,0 l/m 5,2 km/h (1 Bft) 0 min 4,8 km/h (1 Bft)
25.02.2010 18:08 14,1 C 10,3 C 0,0 UV-I 0,0 C 56 % 76 % 0 % 991,1 hPa 0,0 l/m 4,4 km/h (1 Bft) 0 min 3,8 km/h (1 Bft)
25.02.2010 18:10 14,1 C 10,3 C 0,0 UV-I 0,0 C 57 % 76 % 0 % 991,1 hPa 0,0 l/m 4,8 km/h (1 Bft) 0 min 3,4 km/h (1 Bft)
25.02.2010 18:12 14,1 C 10,3 C 0,0 UV-I 0,0 C 56 % 77 % 0 % 991,1 hPa 0,0 l/m 5,2 km/h (1 Bft) 0 min 3,6 km/h (1 Bft)
25.02.2010 18:14 14,1 C 10,3 C 0,0 UV-I 0,0 C 56 % 77 % 0 % 991,1 hPa 0,0 l/m 4,8 km/h (1 Bft) 0 min 4,1 km/h (1 Bft)
25.02.2010 18:16 14,1 C 10,3 C 0,0 UV-I 0,0 C 56 % 77 % 0 % 991,1 hPa 0,0 l/m 4,4 km/h (1 Bft) 0 min 9,1 km/h (2 Bft)
25.02.2010 18:20 14,1 C 10,1 C 0,0 UV-I 0,0 C 57 % 77 % 0 % 991,1 hPa 0,0 l/m 3,2 km/h (1 Bft) 0 min 2,4 km/h (1 Bft)
25.02.2010 18:22 14,1 C 10,1 C 0,0 UV-I 0,0 C 56 % 78 % 0 % 991,1 hPa 0,0 l/m 2,4 km/h (1 Bft) 0 min 0,0 km/h (0 Bft)
25.02.2010 18:24 14,1 C 10,1 C 0,0 UV-I 0,0 C 57 % 78 % 0 % 991,1 hPa 0,0 l/m 3,2 km/h (1 Bft) 0 min 5,5 km/h (1 Bft)
25.02.2010 18:26 13,9 C 10,0 C 0,0 UV-I 0,0 C 57 % 79 % 0 % 991,1 hPa 0,0 l/m 3,6 km/h (1 Bft) 0 min 2,6 km/h (1 Bft)
25.02.2010 18:28 14,1 C 10,0 C 0,0 UV-I 0,0 C 57 % 79 % 0 % 991,1 hPa 0,1 l/m 3,6 km/h (1 Bft) 0 min 3,8 km/h (1 Bft)
25.02.2010 18:30 14,1 C 10,0 C 0,0 UV-I 0,0 C 57 % 79 % 0 % 991,1 hPa 0,0 l/m 4,4 km/h (1 Bft) 0 min 7,0 km/h (2 Bft)
25.02.2010 18:32 13,9 C 10,1 C 0,0 UV-I 0,0 C 57 % 79 % 0 % 991,0 hPa 0,0 l/m 5,2 km/h (1 Bft) 0 min 6,0 km/h (2 Bft)
25.02.2010 18:34 13,9 C 10,0 C 0,0 UV-I 0,0 C 57 % 80 % 0 % 991,0 hPa 0,1 l/m 5,2 km/h (1 Bft) 0 min 5,3 km/h (1 Bft)
25.02.2010 18:38 13,9 C 9,9 C 0,0 UV-I 0,0 C 57 % 80 % 0 % 991,0 hPa 0,0 l/m 4,8 km/h (1 Bft) 0 min 5,5 km/h (1 Bft)
25.02.2010 18:42 13,9 C 9,9 C 0,0 UV-I 0,0 C 57 % 81 % 0 % 991,0 hPa 0,1 l/m 4,4 km/h (1 Bft) 0 min 4,3 km/h (1 Bft)
25.02.2010 18:44 13,9 C 9,8 C 0,0 UV-I 0,0 C 57 % 81 % 0 % 991,0 hPa 0,0 l/m 5,2 km/h (1 Bft) 0 min 7,7 km/h (2 Bft)
25.02.2010 18:48 13,9 C 9,7 C 0,0 UV-I 0,0 C 57 % 82 % 0 % 991,0 hPa 0,1 l/m 6,0 km/h (2 Bft) 0 min 6,5 km/h (2 Bft)
25.02.2010 18:50 13,9 C 9,7 C 0,0 UV-I 0,0 C 57 % 82 % 0 % 991,0 hPa 0,0 l/m 6,0 km/h (2 Bft) 0 min 4,3 km/h (1 Bft)
25.02.2010 18:52 13,9 C 9,6 C 0,0 UV-I 0,0 C 57 % 82 % 0 % 990,8 hPa 0,0 l/m 6,8 km/h (2 Bft) 0 min 6,5 km/h (2 Bft)
25.02.2010 18:54 13,9 C 9,6 C 0,0 UV-I 0,0 C 57 % 82 % 0 % 990,8 hPa 0,0 l/m 7,2 km/h (2 Bft) 0 min 6,7 km/h (2 Bft)
25.02.2010 18:56 13,9 C 9,6 C 0,0 UV-I 0,0 C 57 % 82 % 0 % 990,8 hPa 0,0 l/m 7,6 km/h (2 Bft) 0 min 9,1 km/h (2 Bft)
25.02.2010 18:58 13,9 C 9,6 C 0,0 UV-I 0,0 C 57 % 83 % 0 % 990,8 hPa 0,1 l/m 8,4 km/h (2 Bft) 0 min 10,3 km/h (2 Bft)
25.02.2010 19:00 13,9 C 9,5 C 0,0 UV-I 0,0 C 57 % 83 % 0 % 990,8 hPa 0,0 l/m 8,8 km/h (2 Bft) 0 min 4,1 km/h (1 Bft)
25.02.2010 19:02 13,9 C 9,5 C 0,0 UV-I 0,0 C 57 % 83 % 0 % 990,8 hPa 0,0 l/m 9,2 km/h (2 Bft) 0 min 9,1 km/h (2 Bft)
25.02.2010 19:06 13,9 C 9,5 C 0,0 UV-I 0,0 C 57 % 84 % 0 % 990,8 hPa 0,1 l/m 9,2 km/h (2 Bft) 0 min 10,8 km/h (2 Bft)
25.02.2010 19:08 14,0 C 9,4 C 0,0 UV-I 0,0 C 57 % 84 % 0 % 990,8 hPa 0,0 l/m 8,4 km/h (2 Bft) 0 min 7,5 km/h (2 Bft)
25.02.2010 19:16 13,9 C 9,2 C 0,0 UV-I 0,0 C 58 % 85 % 0 % 990,2 hPa 0,0 l/m 7,2 km/h (2 Bft) 0 min 14,2 km/h (3 Bft)
25.02.2010 19:18 14,0 C 9,2 C 0,0 UV-I 0,0 C 58 % 85 % 0 % 990,2 hPa 0,0 l/m 6,8 km/h (2 Bft) 0 min 8,9 km/h (2 Bft)
25.02.2010 19:20 14,0 C 9,2 C 0,0 UV-I 0,0 C 58 % 85 % 0 % 990,2 hPa 0,0 l/m 6,4 km/h (2 Bft) 0 min 2,9 km/h (1 Bft)
25.02.2010 19:22 14,0 C 9,2 C 0,0 UV-I 0,0 C 58 % 85 % 0 % 990,2 hPa 0,0 l/m 6,4 km/h (2 Bft) 0 min 3,8 km/h (1 Bft)
25.02.2010 19:24 14,0 C 9,1 C 0,0 UV-I 0,0 C 58 % 85 % 0 % 990,2 hPa 0,0 l/m 5,2 km/h (1 Bft) 0 min 4,6 km/h (1 Bft)
25.02.2010 19:26 14,0 C 9,1 C 0,0 UV-I 0,0 C 58 % 85 % 0 % 990,2 hPa 0,0 l/m 4,8 km/h (1 Bft) 0 min 4,1 km/h (1 Bft)
25.02.2010 19:28 14,0 C 9,1 C 0,0 UV-I 0,0 C 58 % 85 % 0 % 990,2 hPa 0,0 l/m 4,0 km/h (1 Bft) 0 min 4,1 km/h (1 Bft)
25.02.2010 19:30 14,0 C 9,1 C 0,0 UV-I 0,0 C 58 % 85 % 0 % 990,2 hPa 0,0 l/m 3,2 km/h (1 Bft) 0 min 0,0 km/h (0 Bft)
25.02.2010 19:34 14,0 C 9,0 C 0,0 UV-I 0,0 C 58 % 85 % 0 % 989,9 hPa 0,1 l/m 3,2 km/h (1 Bft) 0 min 7,9 km/h (2 Bft)
25.02.2010 19:36 14,0 C 9,1 C 0,0 UV-I 0,0 C 58 % 86 % 0 % 989,9 hPa 0,0 l/m 3,6 km/h (1 Bft) 0 min 7,7 km/h (2 Bft)
25.02.2010 19:38 14,0 C 9,1 C 0,0 UV-I 0,0 C 58 % 86 % 0 % 989,9 hPa 0,0 l/m 4,0 km/h (1 Bft) 0 min 5,1 km/h (1 Bft)
25.02.2010 19:40 14,0 C 9,1 C 0,0 UV-I 0,0 C 58 % 86 % 0 % 989,9 hPa 0,1 l/m 4,8 km/h (1 Bft) 0 min 5,8 km/h (2 Bft)
25.02.2010 19:42 14,0 C 9,0 C 0,0 UV-I 0,0 C 58 % 86 % 0 % 989,9 hPa 0,0 l/m 5,2 km/h (1 Bft) 0 min 0,0 km/h (0 Bft)
25.02.2010 19:44 14,0 C 8,9 C 0,0 UV-I 0,0 C 58 % 86 % 0 % 989,9 hPa 0,1 l/m 4,8 km/h (1 Bft) 0 min 0,0 km/h (0 Bft)
25.02.2010 19:46 14,0 C 8,9 C 0,0 UV-I 0,0 C 58 % 86 % 0 % 989,9 hPa 0,1 l/m 4,4 km/h (1 Bft) 0 min 4,1 km/h (1 Bft)
25.02.2010 19:48 14,0 C 8,9 C 0,0 UV-I 0,0 C 58 % 87 % 0 % 989,9 hPa 0,0 l/m 4,8 km/h (1 Bft) 0 min 5,8 km/h (2 Bft)
25.02.2010 19:50 14,0 C 8,8 C 0,0 UV-I 0,0 C 58 % 87 % 0 % 989,9 hPa 0,0 l/m 4,0 km/h (1 Bft) 0 min 3,1 km/h (1 Bft)
25.02.2010 19:52 14,0 C 8,8 C 0,0 UV-I 0,0 C 58 % 87 % 0 % 989,8 hPa 0,0 l/m 4,0 km/h (1 Bft) 0 min 7,7 km/h (2 Bft)
25.02.2010 19:56 14,0 C 8,9 C 0,0 UV-I 0,0 C 58 % 87 % 0 % 989,8 hPa 0,1 l/m 4,8 km/h (1 Bft) 0 min 7,2 km/h (2 Bft)
25.02.2010 19:58 14,0 C 8,8 C 0,0 UV-I 0,0 C 58 % 87 % 0 % 989,8 hPa 0,0 l/m 4,8 km/h (1 Bft) 0 min 4,3 km/h (1 Bft)
25.02.2010 20:02 14,0 C 8,7 C 0,0 UV-I 0,0 C 58 % 87 % 0 % 989,8 hPa 0,0 l/m 6,4 km/h (2 Bft) 0 min 8,2 km/h (2 Bft)
25.02.2010 20:04 14,0 C 8,7 C 0,0 UV-I 0,0 C 58 % 87 % 0 % 989,8 hPa 0,0 l/m 7,2 km/h (2 Bft) 0 min 8,7 km/h (2 Bft)
25.02.2010 20:06 13,8 C 8,7 C 0,0 UV-I 0,0 C 58 % 87 % 0 % 989,8 hPa 0,0 l/m 7,2 km/h (2 Bft) 0 min 4,1 km/h (1 Bft)
25.02.2010 20:08 14,0 C 8,7 C 0,0 UV-I 0,0 C 58 % 87 % 0 % 989,8 hPa 0,0 l/m 7,2 km/h (2 Bft) 0 min 3,1 km/h (1 Bft)
25.02.2010 20:10 14,0 C 8,7 C 0,0 UV-I 0,0 C 58 % 88 % 0 % 989,8 hPa 0,0 l/m 6,8 km/h (2 Bft) 0 min 7,9 km/h (2 Bft)
25.02.2010 20:12 13,8 C 8,6 C 0,0 UV-I 0,0 C 58 % 88 % 0 % 989,4 hPa 0,0 l/m 5,6 km/h (1 Bft) 0 min 4,3 km/h (1 Bft)
25.02.2010 20:16 13,8 C 8,7 C 0,0 UV-I 0,0 C 59 % 88 % 0 % 989,4 hPa 0,0 l/m 5,2 km/h (1 Bft) 0 min 5,3 km/h (1 Bft)
25.02.2010 20:18 13,8 C 8,7 C 0,0 UV-I 0,0 C 59 % 88 % 0 % 989,4 hPa 0,0 l/m 4,4 km/h (1 Bft) 0 min 3,1 km/h (1 Bft)
25.02.2010 20:20 13,8 C 8,7 C 0,0 UV-I 0,0 C 59 % 88 % 0 % 989,4 hPa 0,0 l/m 5,6 km/h (1 Bft) 0 min 6,3 km/h (2 Bft)
25.02.2010 20:22 13,9 C 8,7 C 0,0 UV-I 0,0 C 59 % 88 % 0 % 989,4 hPa 0,0 l/m 6,0 km/h (2 Bft) 0 min 3,8 km/h (1 Bft)
25.02.2010 20:24 13,8 C 8,7 C 0,0 UV-I 0,0 C 59 % 88 % 0 % 989,4 hPa 0,0 l/m 6,4 km/h (2 Bft) 0 min 2,9 km/h (1 Bft)
25.02.2010 20:28 13,8 C 8,7 C 0,0 UV-I 0,0 C 59 % 89 % 0 % 989,4 hPa 0,0 l/m 6,4 km/h (2 Bft) 0 min 3,6 km/h (1 Bft)
25.02.2010 20:30 13,9 C 8,5 C 0,0 UV-I 0,0 C 59 % 89 % 0 % 989,4 hPa 0,0 l/m 6,0 km/h (2 Bft) 0 min 6,7 km/h (2 Bft)
25.02.2010 20:32 13,8 C 8,5 C 0,0 UV-I 0,0 C 59 % 89 % 0 % 989,1 hPa 0,0 l/m 5,6 km/h (1 Bft) 0 min 3,1 km/h (1 Bft)
25.02.2010 20:36 13,9 C 8,5 C 0,0 UV-I 0,0 C 59 % 89 % 0 % 989,1 hPa 0,1 l/m 5,2 km/h (1 Bft) 0 min 7,7 km/h (2 Bft)
25.02.2010 20:38 13,9 C 8,5 C 0,0 UV-I 0,0 C 59 % 89 % 0 % 989,1 hPa 0,0 l/m 5,2 km/h (1 Bft) 0 min 8,4 km/h (2 Bft)
25.02.2010 20:40 13,8 C 8,5 C 0,0 UV-I 0,0 C 59 % 89 % 0 % 989,1 hPa 0,0 l/m 5,6 km/h (1 Bft) 0 min 3,1 km/h (1 Bft)
25.02.2010 20:42 13,9 C 8,5 C 0,0 UV-I 0,0 C 59 % 89 % 0 % 989,1 hPa 0,0 l/m 5,2 km/h (1 Bft) 0 min 5,1 km/h (1 Bft)
25.02.2010 20:44 13,9 C 8,5 C 0,0 UV-I 0,0 C 59 % 89 % 0 % 989,1 hPa 0,0 l/m 5,6 km/h (1 Bft) 0 min 0,0 km/h (0 Bft)
25.02.2010 20:46 13,9 C 8,5 C 0,0 UV-I 0,0 C 59 % 89 % 0 % 989,1 hPa 0,0 l/m 5,6 km/h (1 Bft) 0 min 3,8 km/h (1 Bft)
25.02.2010 20:48 13,9 C 8,4 C 0,0 UV-I 0,0 C 59 % 89 % 0 % 989,1 hPa 0,0 l/m 5,6 km/h (1 Bft) 0 min 6,5 km/h (2 Bft)
25.02.2010 20:50 13,9 C 8,4 C 0,0 UV-I 0,0 C 59 % 89 % 0 % 989,1 hPa 0,0 l/m 6,0 km/h (2 Bft) 0 min 7,0 km/h (2 Bft)
25.02.2010 20:56 13,9 C 8,4 C 0,0 UV-I 0,0 C 59 % 89 % 0 % 988,6 hPa 0,0 l/m 7,2 km/h (2 Bft) 0 min 8,9 km/h (2 Bft)
25.02.2010 20:58 13,9 C 8,5 C 0,0 UV-I 0,0 C 59 % 89 % 0 % 988,6 hPa 0,0 l/m 7,2 km/h (2 Bft) 0 min 6,5 km/h (2 Bft)
25.02.2010 21:04 13,9 C 8,4 C 0,0 UV-I 0,0 C 59 % 90 % 0 % 988,6 hPa 0,0 l/m 8,0 km/h (2 Bft) 0 min 6,0 km/h (2 Bft)
25.02.2010 21:06 13,9 C 8,5 C 0,0 UV-I 0,0 C 59 % 90 % 0 % 988,6 hPa 0,0 l/m 8,4 km/h (2 Bft) 0 min 13,5 km/h (3 Bft)
25.02.2010 21:10 13,9 C 8,5 C 0,0 UV-I 0,0 C 59 % 90 % 0 % 988,6 hPa 0,0 l/m 8,4 km/h (2 Bft) 0 min 11,3 km/h (2 Bft)
25.02.2010 21:12 13,8 C 8,5 C 0,0 UV-I 0,0 C 59 % 90 % 0 % 988,4 hPa 0,0 l/m 9,6 km/h (2 Bft) 0 min 16,4 km/h (3 Bft)
25.02.2010 21:16 13,9 C 8,5 C 0,0 UV-I 0,0 C 59 % 90 % 0 % 988,4 hPa 0,0 l/m 10,4 km/h (2 Bft) 0 min 8,4 km/h (2 Bft)
25.02.2010 21:20 13,8 C 8,5 C 0,0 UV-I 0,0 C 59 % 90 % 0 % 988,4 hPa 0,0 l/m 10,4 km/h (2 Bft) 0 min 8,7 km/h (2 Bft)
25.02.2010 21:22 13,8 C 8,5 C 0,0 UV-I 0,0 C 59 % 90 % 0 % 988,4 hPa 0,0 l/m 10,4 km/h (2 Bft) 0 min 6,3 km/h (2 Bft)
25.02.2010 21:24 13,8 C 8,5 C 0,0 UV-I 0,0 C 59 % 90 % 0 % 988,4 hPa 0,0 l/m 10,4 km/h (2 Bft) 0 min 8,9 km/h (2 Bft)
25.02.2010 21:26 13,8 C 8,4 C 0,0 UV-I 0,0 C 59 % 90 % 0 % 988,4 hPa 0,0 l/m 10,0 km/h (2 Bft) 0 min 7,7 km/h (2 Bft)
25.02.2010 21:28 13,8 C 8,5 C 0,0 UV-I 0,0 C 59 % 90 % 0 % 988,4 hPa 0,0 l/m 10,4 km/h (2 Bft) 0 min 5,8 km/h (2 Bft)
25.02.2010 21:30 13,8 C 8,5 C 0,0 UV-I 0,0 C 59 % 90 % 0 % 988,4 hPa 0,0 l/m 9,6 km/h (2 Bft) 0 min 5,5 km/h (1 Bft)
25.02.2010 21:32 13,8 C 8,5 C 0,0 UV-I 0,0 C 59 % 90 % 0 % 988,6 hPa 0,0 l/m 10,0 km/h (2 Bft) 0 min 15,2 km/h (3 Bft)
25.02.2010 21:34 13,8 C 8,5 C 0,0 UV-I 0,0 C 59 % 90 % 0 % 988,6 hPa 0,0 l/m 10,0 km/h (2 Bft) 0 min 6,3 km/h (2 Bft)
25.02.2010 21:36 13,8 C 8,4 C 0,0 UV-I 0,0 C 60 % 90 % 0 % 988,6 hPa 0,0 l/m 10,8 km/h (2 Bft) 0 min 8,4 km/h (2 Bft)
25.02.2010 21:38 13,8 C 8,4 C 0,0 UV-I 0,0 C 60 % 90 % 0 % 988,6 hPa 0,0 l/m 10,8 km/h (2 Bft) 0 min 12,8 km/h (3 Bft)
25.02.2010 21:40 13,8 C 8,4 C 0,0 UV-I 0,0 C 60 % 90 % 0 % 988,6 hPa 0,0 l/m 10,8 km/h (2 Bft) 0 min 11,8 km/h (2 Bft)
25.02.2010 21:42 13,8 C 8,5 C 0,0 UV-I 0,0 C 60 % 90 % 0 % 988,6 hPa 0,0 l/m 10,8 km/h (2 Bft) 0 min 6,5 km/h (2 Bft)
25.02.2010 21:44 13,8 C 8,5 C 0,0 UV-I 0,0 C 60 % 90 % 0 % 988,6 hPa 0,0 l/m 10,4 km/h (2 Bft) 0 min 6,3 km/h (2 Bft)
25.02.2010 21:46 13,8 C 8,5 C 0,0 UV-I 0,0 C 60 % 90 % 0 % 988,6 hPa 0,0 l/m 10,8 km/h (2 Bft) 0 min 13,0 km/h (3 Bft)
25.02.2010 21:50 13,8 C 8,5 C 0,0 UV-I 0,0 C 60 % 90 % 0 % 988,6 hPa 0,0 l/m 10,0 km/h (2 Bft) 0 min 8,7 km/h (2 Bft)
25.02.2010 21:52 13,8 C 8,4 C 0,0 UV-I 0,0 C 60 % 90 % 0 % 988,2 hPa 0,0 l/m 10,4 km/h (2 Bft) 0 min 12,8 km/h (3 Bft)
25.02.2010 21:54 13,8 C 8,4 C 0,0 UV-I 0,0 C 60 % 90 % 0 % 988,2 hPa 0,0 l/m 10,4 km/h (2 Bft) 0 min 6,3 km/h (2 Bft)
25.02.2010 21:56 13,8 C 8,4 C 0,0 UV-I 0,0 C 60 % 90 % 0 % 988,2 hPa 0,0 l/m 9,6 km/h (2 Bft) 0 min 6,3 km/h (2 Bft)
25.02.2010 22:00 13,8 C 8,4 C 0,0 UV-I 0,0 C 60 % 90 % 0 % 988,2 hPa 0,0 l/m 10,0 km/h (2 Bft) 0 min 8,9 km/h (2 Bft)
25.02.2010 22:02 13,8 C 8,4 C 0,0 UV-I 0,0 C 60 % 90 % 0 % 988,2 hPa 0,0 l/m 10,8 km/h (2 Bft) 0 min 11,3 km/h (2 Bft)
25.02.2010 22:06 13,8 C 8,4 C 0,0 UV-I 0,0 C 60 % 90 % 0 % 988,2 hPa 0,0 l/m 11,2 km/h (2 Bft) 0 min 11,5 km/h (2 Bft)
25.02.2010 22:12 13,8 C 8,5 C 0,0 UV-I 0,0 C 60 % 90 % 0 % 987,9 hPa 0,0 l/m 13,7 km/h (3 Bft) 0 min 17,3 km/h (3 Bft)
25.02.2010 22:14 13,8 C 8,5 C 0,0 UV-I 0,0 C 60 % 90 % 0 % 987,9 hPa 0,0 l/m 13,7 km/h (3 Bft) 0 min 6,7 km/h (2 Bft)
25.02.2010 22:18 13,8 C 8,4 C 0,0 UV-I 0,0 C 60 % 90 % 0 % 987,9 hPa 0,0 l/m 13,3 km/h (3 Bft) 0 min 8,2 km/h (2 Bft)
25.02.2010 22:20 13,8 C 8,4 C 0,0 UV-I 0,0 C 60 % 90 % 0 % 987,9 hPa 0,0 l/m 13,3 km/h (3 Bft) 0 min 14,2 km/h (3 Bft)
25.02.2010 22:22 13,8 C 8,4 C 0,0 UV-I 0,0 C 60 % 90 % 0 % 987,9 hPa 0,0 l/m 13,3 km/h (3 Bft) 0 min 8,7 km/h (2 Bft)
25.02.2010 22:24 13,8 C 8,4 C 0,0 UV-I 0,0 C 60 % 90 % 0 % 987,9 hPa 0,0 l/m 13,3 km/h (3 Bft) 0 min 9,6 km/h (2 Bft)
25.02.2010 22:26 13,8 C 8,4 C 0,0 UV-I 0,0 C 60 % 90 % 0 % 987,9 hPa 0,0 l/m 14,1 km/h (3 Bft) 0 min 9,4 km/h (2 Bft)
25.02.2010 22:28 13,8 C 8,5 C 0,0 UV-I 0,0 C 60 % 90 % 0 % 987,9 hPa 0,0 l/m 13,3 km/h (3 Bft) 0 min 6,3 km/h (2 Bft)
25.02.2010 22:32 13,8 C 8,5 C 0,0 UV-I 0,0 C 60 % 90 % 0 % 987,9 hPa 0,0 l/m 12,0 km/h (2 Bft) 0 min 7,2 km/h (2 Bft)
25.02.2010 22:34 13,8 C 8,5 C 0,0 UV-I 0,0 C 60 % 90 % 0 % 987,9 hPa 0,0 l/m 10,8 km/h (2 Bft) 0 min 16,1 km/h (3 Bft)
25.02.2010 22:36 13,8 C 8,5 C 0,0 UV-I 0,0 C 60 % 90 % 0 % 987,9 hPa 0,0 l/m 9,6 km/h (2 Bft) 0 min 4,3 km/h (1 Bft)
25.02.2010 22:38 13,8 C 8,5 C 0,0 UV-I 0,0 C 60 % 90 % 0 % 987,9 hPa 0,0 l/m 8,4 km/h (2 Bft) 0 min 2,6 km/h (1 Bft)
25.02.2010 22:40 13,8 C 8,5 C 0,0 UV-I 0,0 C 60 % 90 % 0 % 987,9 hPa 0,0 l/m 8,4 km/h (2 Bft) 0 min 9,1 km/h (2 Bft)
25.02.2010 22:42 13,8 C 8,5 C 0,0 UV-I 0,0 C 60 % 90 % 0 % 987,9 hPa 0,0 l/m 8,4 km/h (2 Bft) 0 min 13,0 km/h (3 Bft)
25.02.2010 22:44 13,8 C 8,5 C 0,0 UV-I 0,0 C 60 % 90 % 0 % 987,9 hPa 0,0 l/m 9,2 km/h (2 Bft) 0 min 10,8 km/h (2 Bft)
25.02.2010 22:46 13,8 C 8,5 C 0,0 UV-I 0,0 C 60 % 90 % 0 % 987,9 hPa 0,0 l/m 9,6 km/h (2 Bft) 0 min 6,5 km/h (2 Bft)
25.02.2010 22:50 13,8 C 8,5 C 0,0 UV-I 0,0 C 60 % 90 % 0 % 987,9 hPa 0,0 l/m 11,2 km/h (2 Bft) 0 min 5,3 km/h (1 Bft)
25.02.2010 22:52 13,8 C 8,5 C 0,0 UV-I 0,0 C 60 % 90 % 0 % 987,9 hPa 0,0 l/m 12,0 km/h (2 Bft) 0 min 12,5 km/h (3 Bft)
25.02.2010 22:54 13,8 C 8,5 C 0,0 UV-I 0,0 C 60 % 90 % 0 % 987,9 hPa 0,0 l/m 10,8 km/h (2 Bft) 0 min 4,1 km/h (1 Bft)
25.02.2010 22:58 13,8 C 8,6 C 0,0 UV-I 0,0 C 60 % 90 % 0 % 987,9 hPa 0,0 l/m 11,2 km/h (2 Bft) 0 min 8,2 km/h (2 Bft)
25.02.2010 23:02 13,8 C 8,6 C 0,0 UV-I 0,0 C 60 % 90 % 0 % 987,9 hPa 0,0 l/m 10,4 km/h (2 Bft) 0 min 16,1 km/h (3 Bft)
25.02.2010 23:04 13,8 C 8,5 C 0,0 UV-I 0,0 C 60 % 90 % 0 % 987,9 hPa 0,0 l/m 10,0 km/h (2 Bft) 0 min 8,7 km/h (2 Bft)
25.02.2010 23:06 13,8 C 8,6 C 0,0 UV-I 0,0 C 60 % 90 % 0 % 987,9 hPa 0,0 l/m 10,8 km/h (2 Bft) 0 min 8,7 km/h (2 Bft)
25.02.2010 23:12 13,8 C 8,6 C 0,0 UV-I 0,0 C 60 % 90 % 0 % 987,8 hPa 0,0 l/m 10,4 km/h (2 Bft) 0 min 12,3 km/h (3 Bft)
25.02.2010 23:14 13,8 C 8,7 C 0,0 UV-I 0,0 C 60 % 90 % 0 % 987,8 hPa 0,0 l/m 10,0 km/h (2 Bft) 0 min 5,3 km/h (1 Bft)
25.02.2010 23:16 13,8 C 8,6 C 0,0 UV-I 0,0 C 60 % 90 % 0 % 987,8 hPa 0,0 l/m 9,2 km/h (2 Bft) 0 min 6,7 km/h (2 Bft)
25.02.2010 23:20 13,8 C 8,5 C 0,0 UV-I 0,0 C 60 % 90 % 0 % 987,8 hPa 0,0 l/m 10,0 km/h (2 Bft) 0 min 8,2 km/h (2 Bft)
25.02.2010 23:22 13,8 C 8,5 C 0,0 UV-I 0,0 C 60 % 90 % 0 % 987,8 hPa 0,0 l/m 10,0 km/h (2 Bft) 0 min 11,3 km/h (2 Bft)
25.02.2010 23:26 13,8 C 8,5 C 0,0 UV-I 0,0 C 60 % 90 % 0 % 987,8 hPa 0,0 l/m 8,4 km/h (2 Bft) 0 min 8,4 km/h (2 Bft)
25.02.2010 23:32 13,8 C 8,4 C 0,0 UV-I 0,0 C 60 % 90 % 0 % 987,4 hPa 0,0 l/m 8,0 km/h (2 Bft) 0 min 14,0 km/h (3 Bft)
25.02.2010 23:36 13,8 C 8,4 C 0,0 UV-I 0,0 C 60 % 90 % 0 % 987,4 hPa 0,0 l/m 9,2 km/h (2 Bft) 0 min 10,6 km/h (2 Bft)
25.02.2010 23:44 13,8 C 8,4 C 0,0 UV-I 0,0 C 60 % 90 % 0 % 987,4 hPa 0,0 l/m 8,0 km/h (2 Bft) 0 min 6,0 km/h (2 Bft)
25.02.2010 23:46 13,8 C 8,4 C 0,0 UV-I 0,0 C 60 % 90 % 0 % 987,4 hPa 0,0 l/m 8,0 km/h (2 Bft) 0 min 5,3 km/h (1 Bft)
25.02.2010 23:48 13,8 C 8,4 C 0,0 UV-I 0,0 C 60 % 90 % 0 % 987,4 hPa 0,0 l/m 8,0 km/h (2 Bft) 0 min 6,7 km/h (2 Bft)
25.02.2010 23:52 13,8 C 8,4 C 0,0 UV-I 0,0 C 60 % 90 % 0 % 987,4 hPa 0,0 l/m 8,8 km/h (2 Bft) 0 min 8,4 km/h (2 Bft)
25.02.2010 23:54 13,8 C 8,4 C 0,0 UV-I 0,0 C 60 % 91 % 0 % 987,4 hPa 0,0 l/m 9,2 km/h (2 Bft) 0 min 10,3 km/h (2 Bft)
25.02.2010 23:58 13,8 C 8,4 C 0,0 UV-I 0,0 C 60 % 91 % 0 % 987,4 hPa 0,1 l/m 7,2 km/h (2 Bft) 0 min 5,8 km/h (2 Bft)
_ Min-Zeit 08:24 00:00 00:00 00:00 01:25 13:54 00:00 23:32 - 18:22 - 16:50
Minimum _ 13,6 C 8,4 C 0,0 UV-I 0,0 C 56 % 72 % 0 % 987,4 hPa - 2,4 km/h (1 Bft) - 0,0 km/h (0 Bft)
_ Max-Zeit 01:00 13:30 13:04 13:20 08:40 23:54 13:20 00:00 06:00 02:35 00:00 09:42
Maximum _ 14,6 C 11,4 C 1,8 UV-I 1,1 C 60 % 91 % 31 % 994,8 hPa 0,2 l/m 20,1 km/h
O-NO (4 Bft)
0 min 32,7 km/h
N (5 Bft)
Durchschnitt _ 14,1 C 9,5 C 0,1 UV-I 0,1 C 58 % 83 % 2 % 992,0 hPa #2,6 l/m 11,7 km/h (2 Bft) #0 min. 9,9 km/h (2 Bft)
© 2012 W. Hausmann